Index of /sire/glider/missions/Convex_20

[ICO]NameLast modifiedSizeDescription

[DIR]Parent Directory   -
[IMG]Backscatter_wlbbfl2 ..>12-Jun-2020 13:28 43K
[IMG]Diveplot 001.png 12-Jun-2020 13:28 157K
[IMG]Diveplot Details 001..>12-Jun-2020 13:28 122K
[IMG]Fluorometer_wlbbfl2 ..>12-Jun-2020 13:28 87K
[IMG]O2 001.png 12-Jun-2020 13:28 70K
[IMG]Path through water 0..>12-Jun-2020 13:28 124K
[IMG]Pitch 001.png 12-Jun-2020 13:28 80K
[IMG]Roll 001.png 12-Jun-2020 13:28 101K
[IMG]Roll Rate 001.png 12-Jun-2020 13:28 106K
[IMG]Temp & Salinity 001.png12-Jun-2020 13:28 69K
[IMG]T vs. S 001.png 12-Jun-2020 13:28 74K
[IMG]VBD 001.png 12-Jun-2020 13:28 115K
[IMG]Vertical Velocities ..>12-Jun-2020 13:28 85K
[IMG]Backscatter_wlbbfl2 ..>12-Jun-2020 13:53 43K
[IMG]Diveplot 002.png 12-Jun-2020 13:53 159K
[IMG]Diveplot Details 002..>12-Jun-2020 13:53 123K
[IMG]Fluorometer_wlbbfl2 ..>12-Jun-2020 13:53 85K
[IMG]O2 002.png 12-Jun-2020 13:53 70K
[IMG]Path through water 0..>12-Jun-2020 13:53 120K
[IMG]Pitch 002.png 12-Jun-2020 13:53 83K
[IMG]Roll 002.png 12-Jun-2020 13:53 104K
[IMG]Roll Rate 002.png 12-Jun-2020 13:53 103K
[IMG]Temp & Salinity 002.png12-Jun-2020 13:53 69K
[IMG]T vs. S 002.png 12-Jun-2020 13:53 73K
[IMG]VBD 002.png 12-Jun-2020 13:53 115K
[IMG]Vertical Velocities ..>12-Jun-2020 13:53 85K
[IMG]Backscatter_wlbbfl2 ..>12-Jun-2020 15:26 42K
[IMG]Diveplot 003.png 12-Jun-2020 15:26 158K
[IMG]Diveplot Details 003..>12-Jun-2020 15:26 123K
[IMG]Fluorometer_wlbbfl2 ..>12-Jun-2020 15:26 86K
[IMG]O2 003.png 12-Jun-2020 15:26 69K
[IMG]Path through water 0..>12-Jun-2020 15:26 118K
[IMG]Pitch 003.png 12-Jun-2020 15:26 83K
[IMG]Roll 003.png 12-Jun-2020 15:26 99K
[IMG]Roll Rate 003.png 12-Jun-2020 15:26 114K
[IMG]Temp & Salinity 003.png12-Jun-2020 15:26 69K
[IMG]T vs. S 003.png 12-Jun-2020 15:26 73K
[IMG]VBD 003.png 12-Jun-2020 15:26 115K
[IMG]Vertical Velocities ..>12-Jun-2020 15:26 86K
[IMG]Backscatter_wlbbfl2 ..>12-Jun-2020 15:27 48K
[IMG]Diveplot 004.png 12-Jun-2020 15:27 174K
[IMG]Diveplot Details 004..>12-Jun-2020 15:27 126K
[IMG]Fluorometer_wlbbfl2 ..>12-Jun-2020 15:27 95K
[IMG]O2 004.png 12-Jun-2020 15:27 79K
[IMG]Path through water 0..>12-Jun-2020 15:27 117K
[IMG]Pitch 004.png 12-Jun-2020 15:27 84K
[IMG]Roll 004.png 12-Jun-2020 15:27 102K
[IMG]Roll Rate 004.png 12-Jun-2020 15:27 108K
[IMG]Temp & Salinity 004.png12-Jun-2020 15:27 75K
[IMG]T vs. S 004.png 12-Jun-2020 15:27 64K
[IMG]VBD 004.png 12-Jun-2020 15:27 119K
[IMG]Vertical Velocities ..>12-Jun-2020 15:27 126K
[IMG]Backscatter_wlbbfl2 ..>12-Jun-2020 17:16 49K
[IMG]Diveplot 005.png 12-Jun-2020 17:16 172K
[IMG]Diveplot Details 005..>12-Jun-2020 17:16 125K
[IMG]Fluorometer_wlbbfl2 ..>12-Jun-2020 17:16 96K
[IMG]O2 005.png 12-Jun-2020 17:16 82K
[IMG]Path through water 0..>12-Jun-2020 17:16 119K
[IMG]Pitch 005.png 12-Jun-2020 17:16 81K
[IMG]Roll 005.png 12-Jun-2020 17:16 101K
[IMG]Roll Rate 005.png 12-Jun-2020 17:16 107K
[IMG]Temp & Salinity 005.png12-Jun-2020 17:16 75K
[IMG]T vs. S 005.png 12-Jun-2020 17:16 64K
[IMG]VBD 005.png 12-Jun-2020 17:16 119K
[IMG]Vertical Velocities ..>12-Jun-2020 17:16 124K
[IMG]Backscatter_wlbbfl2 ..>12-Jun-2020 18:57 40K
[IMG]Diveplot 006.png 12-Jun-2020 18:57 200K
[IMG]Diveplot Details 006..>12-Jun-2020 18:57 130K
[IMG]Fluorometer_wlbbfl2 ..>12-Jun-2020 18:57 98K
[IMG]O2 006.png 12-Jun-2020 18:57 95K
[IMG]Path through water 0..>12-Jun-2020 18:57 114K
[IMG]Pitch 006.png 12-Jun-2020 18:57 83K
[IMG]Roll 006.png 12-Jun-2020 18:57 105K
[IMG]Roll Rate 006.png 12-Jun-2020 18:57 106K
[IMG]Temp & Salinity 006.png12-Jun-2020 18:57 70K
[IMG]T vs. S 006.png 12-Jun-2020 18:57 67K
[IMG]VBD 006.png 12-Jun-2020 18:57 119K
[IMG]Vertical Velocities ..>12-Jun-2020 18:57 139K
[IMG]Backscatter_wlbbfl2 ..>12-Jun-2020 20:36 41K
[IMG]Diveplot 007.png 12-Jun-2020 20:36 194K
[IMG]Diveplot Details 007..>12-Jun-2020 20:36 127K
[IMG]Fluorometer_wlbbfl2 ..>12-Jun-2020 20:36 97K
[IMG]O2 007.png 12-Jun-2020 20:36 94K
[IMG]Path through water 0..>12-Jun-2020 20:36 123K
[IMG]Pitch 007.png 12-Jun-2020 20:36 82K
[IMG]Roll 007.png 12-Jun-2020 20:36 102K
[IMG]Roll Rate 007.png 12-Jun-2020 20:36 106K
[IMG]Temp & Salinity 007.png12-Jun-2020 20:36 70K
[IMG]T vs. S 007.png 12-Jun-2020 20:36 66K
[IMG]VBD 007.png 12-Jun-2020 20:36 118K
[IMG]Vertical Velocities ..>12-Jun-2020 20:36 132K
[IMG]Backscatter_wlbbfl2 ..>12-Jun-2020 22:19 43K
[IMG]Diveplot 008.png 12-Jun-2020 22:19 198K
[IMG]Diveplot Details 008..>12-Jun-2020 22:19 127K
[IMG]Fluorometer_wlbbfl2 ..>12-Jun-2020 22:19 96K
[IMG]O2 008.png 12-Jun-2020 22:19 91K
[IMG]Path through water 0..>12-Jun-2020 22:19 125K
[IMG]Pitch 008.png 12-Jun-2020 22:19 84K
[IMG]Roll 008.png 12-Jun-2020 22:19 102K
[IMG]Roll Rate 008.png 12-Jun-2020 22:19 106K
[IMG]Temp & Salinity 008.png12-Jun-2020 22:19 69K
[IMG]T vs. S 008.png 12-Jun-2020 22:19 63K
[IMG]VBD 008.png 12-Jun-2020 22:19 117K
[IMG]Vertical Velocities ..>12-Jun-2020 22:19 136K
[IMG]Backscatter_wlbbfl2 ..>13-Jun-2020 01:11 40K
[IMG]Diveplot 009.png 13-Jun-2020 01:11 200K
[IMG]Diveplot Details 009..>13-Jun-2020 01:11 129K
[IMG]Fluorometer_wlbbfl2 ..>13-Jun-2020 01:11 95K
[IMG]O2 009.png 13-Jun-2020 01:11 95K
[IMG]Path through water 0..>13-Jun-2020 01:11 124K
[IMG]Pitch 009.png 13-Jun-2020 01:11 82K
[IMG]Roll 009.png 13-Jun-2020 01:11 106K
[IMG]Roll Rate 009.png 13-Jun-2020 01:11 105K
[IMG]Temp & Salinity 009.png13-Jun-2020 01:11 70K
[IMG]T vs. S 009.png 13-Jun-2020 01:11 63K
[IMG]VBD 009.png 13-Jun-2020 01:11 119K
[IMG]Vertical Velocities ..>13-Jun-2020 01:11 143K
[IMG]Backscatter_wlbbfl2 ..>13-Jun-2020 07:52 41K
[IMG]Diveplot 011.png 13-Jun-2020 07:52 208K
[IMG]Diveplot Details 011..>13-Jun-2020 07:52 125K
[IMG]Fluorometer_wlbbfl2 ..>13-Jun-2020 07:52 81K
[IMG]O2 011.png 13-Jun-2020 07:52 95K
[IMG]Path through water 0..>13-Jun-2020 07:52 125K
[IMG]Pitch 011.png 13-Jun-2020 07:52 84K
[IMG]Roll 011.png 13-Jun-2020 07:52 105K
[IMG]Roll Rate 011.png 13-Jun-2020 07:52 108K
[IMG]Temp & Salinity 011.png13-Jun-2020 07:52 66K
[IMG]T vs. S 011.png 13-Jun-2020 07:52 65K
[IMG]VBD 011.png 13-Jun-2020 07:52 118K
[IMG]Vertical Velocities ..>13-Jun-2020 07:52 114K
[IMG]Backscatter_wlbbfl2 ..>13-Jun-2020 11:54 42K
[IMG]Diveplot 012.png 13-Jun-2020 11:54 205K
[IMG]Diveplot Details 012..>13-Jun-2020 11:54 129K
[IMG]Fluorometer_wlbbfl2 ..>13-Jun-2020 11:54 87K
[IMG]O2 012.png 13-Jun-2020 11:54 108K
[IMG]Path through water 0..>13-Jun-2020 11:54 116K
[IMG]Pitch 012.png 13-Jun-2020 11:54 84K
[IMG]Roll 012.png 13-Jun-2020 11:54 105K
[IMG]Roll Rate 012.png 13-Jun-2020 11:54 106K
[IMG]Temp & Salinity 012.png13-Jun-2020 11:54 71K
[IMG]T vs. S 012.png 13-Jun-2020 11:54 64K
[IMG]VBD 012.png 13-Jun-2020 11:54 116K
[IMG]Vertical Velocities ..>13-Jun-2020 11:54 118K
[IMG]Backscatter_wlbbfl2 ..>13-Jun-2020 16:48 40K
[IMG]Diveplot 013.png 13-Jun-2020 16:48 199K
[IMG]Diveplot Details 013..>13-Jun-2020 16:48 128K
[IMG]Fluorometer_wlbbfl2 ..>13-Jun-2020 16:48 89K
[IMG]O2 013.png 13-Jun-2020 16:48 114K
[IMG]Path through water 0..>13-Jun-2020 16:48 119K
[IMG]Pitch 013.png 13-Jun-2020 16:48 83K
[IMG]Roll 013.png 13-Jun-2020 16:48 105K
[IMG]Roll Rate 013.png 13-Jun-2020 16:48 107K
[IMG]Temp & Salinity 013.png13-Jun-2020 16:48 71K
[IMG]T vs. S 013.png 13-Jun-2020 16:48 65K
[IMG]VBD 013.png 13-Jun-2020 16:48 118K
[IMG]Vertical Velocities ..>13-Jun-2020 16:48 113K
[IMG]Backscatter_wlbbfl2 ..>13-Jun-2020 21:53 41K
[IMG]Diveplot 014.png 13-Jun-2020 21:53 217K
[IMG]Diveplot Details 014..>13-Jun-2020 21:53 128K
[IMG]Fluorometer_wlbbfl2 ..>13-Jun-2020 21:53 88K
[IMG]O2 014.png 13-Jun-2020 21:53 125K
[IMG]Path through water 0..>13-Jun-2020 21:53 123K
[IMG]Pitch 014.png 13-Jun-2020 21:53 84K
[IMG]Roll 014.png 13-Jun-2020 21:53 105K
[IMG]Roll Rate 014.png 13-Jun-2020 21:53 107K
[IMG]Temp & Salinity 014.png13-Jun-2020 21:53 75K
[IMG]T vs. S 014.png 13-Jun-2020 21:53 65K
[IMG]VBD 014.png 13-Jun-2020 21:53 118K
[IMG]Vertical Velocities ..>13-Jun-2020 21:53 134K
[IMG]Backscatter_wlbbfl2 ..>14-Jun-2020 02:54 41K
[IMG]Diveplot 015.png 14-Jun-2020 02:54 210K
[IMG]Diveplot Details 015..>14-Jun-2020 02:54 127K
[IMG]Fluorometer_wlbbfl2 ..>14-Jun-2020 02:54 82K
[IMG]O2 015.png 14-Jun-2020 02:54 119K
[IMG]Path through water 0..>14-Jun-2020 02:54 119K
[IMG]Pitch 015.png 14-Jun-2020 02:54 84K
[IMG]Roll 015.png 14-Jun-2020 02:54 106K
[IMG]Roll Rate 015.png 14-Jun-2020 02:54 106K
[IMG]Temp & Salinity 015.png14-Jun-2020 02:54 77K
[IMG]T vs. S 015.png 14-Jun-2020 02:54 68K
[IMG]VBD 015.png 14-Jun-2020 02:54 118K
[IMG]Vertical Velocities ..>14-Jun-2020 02:54 118K
[IMG]Backscatter_wlbbfl2 ..>14-Jun-2020 07:57 41K
[IMG]Diveplot 016.png 14-Jun-2020 07:57 203K
[IMG]Diveplot Details 016..>14-Jun-2020 07:57 124K
[IMG]Fluorometer_wlbbfl2 ..>14-Jun-2020 07:57 87K
[IMG]O2 016.png 14-Jun-2020 07:57 120K
[IMG]Path through water 0..>14-Jun-2020 07:57 119K
[IMG]Pitch 016.png 14-Jun-2020 07:57 84K
[IMG]Roll 016.png 14-Jun-2020 07:57 103K
[IMG]Roll Rate 016.png 14-Jun-2020 07:57 103K
[IMG]Temp & Salinity 016.png14-Jun-2020 07:57 77K
[IMG]T vs. S 016.png 14-Jun-2020 07:57 69K
[IMG]VBD 016.png 14-Jun-2020 07:57 118K
[IMG]Vertical Velocities ..>14-Jun-2020 07:57 120K
[IMG]Backscatter_wlbbfl2 ..>14-Jun-2020 12:57 41K
[IMG]Diveplot 017.png 14-Jun-2020 12:57 209K
[IMG]Diveplot Details 017..>14-Jun-2020 12:57 127K
[IMG]Fluorometer_wlbbfl2 ..>14-Jun-2020 12:57 83K
[IMG]O2 017.png 14-Jun-2020 12:57 122K
[IMG]Path through water 0..>14-Jun-2020 12:57 121K
[IMG]Pitch 017.png 14-Jun-2020 12:57 81K
[IMG]Roll 017.png 14-Jun-2020 12:57 108K
[IMG]Roll Rate 017.png 14-Jun-2020 12:57 109K
[IMG]Temp & Salinity 017.png14-Jun-2020 12:57 78K
[IMG]T vs. S 017.png 14-Jun-2020 12:57 68K
[IMG]VBD 017.png 14-Jun-2020 12:57 117K
[IMG]Vertical Velocities ..>14-Jun-2020 12:57 121K
[IMG]Backscatter_wlbbfl2 ..>14-Jun-2020 17:57 41K
[IMG]Diveplot 018.png 14-Jun-2020 17:57 202K
[IMG]Diveplot Details 018..>14-Jun-2020 17:57 125K
[IMG]Fluorometer_wlbbfl2 ..>14-Jun-2020 17:57 76K
[IMG]O2 018.png 14-Jun-2020 17:57 107K
[IMG]Path through water 0..>14-Jun-2020 17:57 119K
[IMG]Pitch 018.png 14-Jun-2020 17:57 79K
[IMG]Roll 018.png 14-Jun-2020 17:57 101K
[IMG]Roll Rate 018.png 14-Jun-2020 17:57 104K
[IMG]Temp & Salinity 018.png14-Jun-2020 17:57 77K
[IMG]T vs. S 018.png 14-Jun-2020 17:57 70K
[IMG]VBD 018.png 14-Jun-2020 17:57 118K
[IMG]Vertical Velocities ..>14-Jun-2020 17:57 119K
[IMG]Backscatter_wlbbfl2 ..>14-Jun-2020 22:23 41K
[IMG]Diveplot 019.png 14-Jun-2020 22:23 214K
[IMG]Diveplot Details 019..>14-Jun-2020 22:23 128K
[IMG]Fluorometer_wlbbfl2 ..>14-Jun-2020 22:23 89K
[IMG]O2 019.png 14-Jun-2020 22:23 121K
[IMG]Path through water 0..>14-Jun-2020 22:23 119K
[IMG]Pitch 019.png 14-Jun-2020 22:23 78K
[IMG]Roll 019.png 14-Jun-2020 22:23 104K
[IMG]Roll Rate 019.png 14-Jun-2020 22:23 108K
[IMG]Temp & Salinity 019.png14-Jun-2020 22:23 75K
[IMG]T vs. S 019.png 14-Jun-2020 22:23 73K
[IMG]VBD 019.png 14-Jun-2020 22:23 118K
[IMG]Vertical Velocities ..>14-Jun-2020 22:23 128K
[IMG]Backscatter_wlbbfl2 ..>15-Jun-2020 08:32 42K
[IMG]Diveplot 020.png 15-Jun-2020 08:32 214K
[IMG]Diveplot Details 020..>15-Jun-2020 08:32 133K
[IMG]Fluorometer_wlbbfl2 ..>15-Jun-2020 08:32 88K
[IMG]O2 020.png 15-Jun-2020 08:32 124K
[IMG]Path through water 0..>15-Jun-2020 08:32 118K
[IMG]Pitch 020.png 15-Jun-2020 08:32 80K
[IMG]Roll 020.png 15-Jun-2020 08:32 105K
[IMG]Roll Rate 020.png 15-Jun-2020 08:32 108K
[IMG]Temp & Salinity 020.png15-Jun-2020 08:32 76K
[IMG]T vs. S 020.png 15-Jun-2020 08:32 73K
[IMG]VBD 020.png 15-Jun-2020 08:32 117K
[IMG]Vertical Velocities ..>15-Jun-2020 08:32 129K
[IMG]Backscatter_wlbbfl2 ..>15-Jun-2020 08:39 41K
[IMG]Diveplot 021.png 15-Jun-2020 08:39 206K
[IMG]Diveplot Details 021..>15-Jun-2020 08:39 126K
[IMG]Fluorometer_wlbbfl2 ..>15-Jun-2020 08:39 84K
[IMG]O2 021.png 15-Jun-2020 08:39 123K
[IMG]Path through water 0..>15-Jun-2020 08:39 124K
[IMG]Pitch 021.png 15-Jun-2020 08:39 80K
[IMG]Roll 021.png 15-Jun-2020 08:39 102K
[IMG]Roll Rate 021.png 15-Jun-2020 08:39 103K
[IMG]Temp & Salinity 021.png15-Jun-2020 08:39 79K
[IMG]T vs. S 021.png 15-Jun-2020 08:39 68K
[IMG]VBD 021.png 15-Jun-2020 08:39 117K
[IMG]Vertical Velocities ..>15-Jun-2020 08:39 126K
[IMG]Backscatter_wlbbfl2 ..>15-Jun-2020 13:41 41K
[IMG]Diveplot 022.png 15-Jun-2020 13:41 196K
[IMG]Diveplot Details 022..>15-Jun-2020 13:41 123K
[IMG]Fluorometer_wlbbfl2 ..>15-Jun-2020 13:41 82K
[IMG]O2 022.png 15-Jun-2020 13:41 99K
[IMG]Path through water 0..>15-Jun-2020 13:41 119K
[IMG]Pitch 022.png 15-Jun-2020 13:41 79K
[IMG]Roll 022.png 15-Jun-2020 13:41 102K
[IMG]Roll Rate 022.png 15-Jun-2020 13:41 107K
[IMG]Temp & Salinity 022.png15-Jun-2020 13:41 71K
[IMG]T vs. S 022.png 15-Jun-2020 13:41 62K
[IMG]VBD 022.png 15-Jun-2020 13:41 114K
[IMG]Vertical Velocities ..>15-Jun-2020 13:41 112K
[IMG]Backscatter_wlbbfl2 ..>15-Jun-2020 17:59 41K
[IMG]Diveplot 023.png 15-Jun-2020 17:59 205K
[IMG]Diveplot Details 023..>15-Jun-2020 17:59 126K
[IMG]Fluorometer_wlbbfl2 ..>15-Jun-2020 17:59 82K
[IMG]O2 023.png 15-Jun-2020 17:59 123K
[IMG]Path through water 0..>15-Jun-2020 17:59 126K
[IMG]Pitch 023.png 15-Jun-2020 17:59 82K
[IMG]Roll 023.png 15-Jun-2020 17:59 106K
[IMG]Roll Rate 023.png 15-Jun-2020 17:59 107K
[IMG]Temp & Salinity 023.png15-Jun-2020 17:59 78K
[IMG]T vs. S 023.png 15-Jun-2020 17:59 70K
[IMG]VBD 023.png 15-Jun-2020 17:59 118K
[IMG]Vertical Velocities ..>15-Jun-2020 17:59 128K
[IMG]Backscatter_wlbbfl2 ..>16-Jun-2020 03:57 42K
[IMG]Diveplot 024.png 16-Jun-2020 03:57 214K
[IMG]Diveplot Details 024..>16-Jun-2020 03:57 134K
[IMG]Fluorometer_wlbbfl2 ..>16-Jun-2020 03:57 84K
[IMG]O2 024.png 16-Jun-2020 03:57 123K
[IMG]Path through water 0..>16-Jun-2020 03:57 119K
[IMG]Pitch 024.png 16-Jun-2020 03:57 80K
[IMG]Roll 024.png 16-Jun-2020 03:57 104K
[IMG]Roll Rate 024.png 16-Jun-2020 03:57 107K
[IMG]Temp & Salinity 024.png16-Jun-2020 03:57 79K
[IMG]T vs. S 024.png 16-Jun-2020 03:57 70K
[IMG]VBD 024.png 16-Jun-2020 03:57 116K
[IMG]Vertical Velocities ..>16-Jun-2020 03:57 120K
[IMG]Backscatter_wlbbfl2 ..>16-Jun-2020 08:59 41K
[IMG]Diveplot 025.png 16-Jun-2020 08:59 209K
[IMG]Diveplot Details 025..>16-Jun-2020 08:59 127K
[IMG]Fluorometer_wlbbfl2 ..>16-Jun-2020 08:59 86K
[IMG]O2 025.png 16-Jun-2020 08:59 124K
[IMG]Path through water 0..>16-Jun-2020 08:59 127K
[IMG]Pitch 025.png 16-Jun-2020 08:59 80K
[IMG]Roll 025.png 16-Jun-2020 08:59 104K
[IMG]Roll Rate 025.png 16-Jun-2020 08:59 105K
[IMG]Temp & Salinity 025.png16-Jun-2020 08:59 79K
[IMG]T vs. S 025.png 16-Jun-2020 08:59 71K
[IMG]VBD 025.png 16-Jun-2020 08:59 118K
[IMG]Vertical Velocities ..>16-Jun-2020 08:59 126K
[IMG]Diveplot 026.png 16-Jun-2020 09:13 201K
[IMG]Fluorometer_wlbbfl2 ..>16-Jun-2020 09:13 86K
[IMG]O2 026.png 16-Jun-2020 09:13 121K
[IMG]Path through water 0..>16-Jun-2020 09:13 122K
[IMG]Pitch 026.png 16-Jun-2020 09:13 82K
[IMG]Roll 026.png 16-Jun-2020 09:13 106K
[IMG]Roll Rate 026.png 16-Jun-2020 09:13 110K
[IMG]Temp & Salinity 026.png16-Jun-2020 09:13 77K
[IMG]T vs. S 026.png 16-Jun-2020 09:13 70K
[IMG]VBD 026.png 16-Jun-2020 09:13 118K
[IMG]Vertical Velocities ..>16-Jun-2020 09:13 131K
[IMG]Backscatter_wlbbfl2 ..>16-Jun-2020 09:13 41K
[IMG]Diveplot Details 026..>16-Jun-2020 09:13 124K
[IMG]Backscatter_wlbbfl2 ..>16-Jun-2020 19:08 42K
[IMG]Diveplot 027.png 16-Jun-2020 19:08 203K
[IMG]Diveplot Details 027..>16-Jun-2020 19:08 125K
[IMG]Fluorometer_wlbbfl2 ..>16-Jun-2020 19:08 78K
[IMG]O2 027.png 16-Jun-2020 19:08 123K
[IMG]Path through water 0..>16-Jun-2020 19:08 121K
[IMG]Pitch 027.png 16-Jun-2020 19:08 83K
[IMG]Roll 027.png 16-Jun-2020 19:08 104K
[IMG]Roll Rate 027.png 16-Jun-2020 19:08 107K
[IMG]Temp & Salinity 027.png16-Jun-2020 19:08 77K
[IMG]T vs. S 027.png 16-Jun-2020 19:08 70K
[IMG]VBD 027.png 16-Jun-2020 19:08 118K
[IMG]Vertical Velocities ..>16-Jun-2020 19:08 122K
[IMG]Backscatter_wlbbfl2 ..>16-Jun-2020 19:20 42K
[IMG]Diveplot 028.png 16-Jun-2020 19:20 198K
[IMG]Diveplot Details 028..>16-Jun-2020 19:20 123K
[IMG]Fluorometer_wlbbfl2 ..>16-Jun-2020 19:20 80K
[IMG]O2 028.png 16-Jun-2020 19:20 124K
[IMG]Path through water 0..>16-Jun-2020 19:20 123K
[IMG]Pitch 028.png 16-Jun-2020 19:20 81K
[IMG]Roll 028.png 16-Jun-2020 19:20 102K
[IMG]Roll Rate 028.png 16-Jun-2020 19:20 102K
[IMG]Temp & Salinity 028.png16-Jun-2020 19:20 79K
[IMG]T vs. S 028.png 16-Jun-2020 19:20 71K
[IMG]VBD 028.png 16-Jun-2020 19:20 118K
[IMG]Vertical Velocities ..>16-Jun-2020 19:20 128K
[IMG]Backscatter_wlbbfl2 ..>17-Jun-2020 00:17 41K
[IMG]Diveplot 029.png 17-Jun-2020 00:17 210K
[IMG]Diveplot Details 029..>17-Jun-2020 00:17 126K
[IMG]Fluorometer_wlbbfl2 ..>17-Jun-2020 00:17 86K
[IMG]O2 029.png 17-Jun-2020 00:17 125K
[IMG]Path through water 0..>17-Jun-2020 00:17 123K
[IMG]Pitch 029.png 17-Jun-2020 00:17 81K
[IMG]Roll 029.png 17-Jun-2020 00:17 104K
[IMG]Roll Rate 029.png 17-Jun-2020 00:17 104K
[IMG]Temp & Salinity 029.png17-Jun-2020 00:17 77K
[IMG]T vs. S 029.png 17-Jun-2020 00:17 70K
[IMG]VBD 029.png 17-Jun-2020 00:17 119K
[IMG]Vertical Velocities ..>17-Jun-2020 00:17 126K
[IMG]Backscatter_wlbbfl2 ..>17-Jun-2020 05:16 41K
[IMG]Diveplot 030.png 17-Jun-2020 05:16 206K
[IMG]Diveplot Details 030..>17-Jun-2020 05:16 125K
[IMG]Fluorometer_wlbbfl2 ..>17-Jun-2020 05:16 87K
[IMG]O2 030.png 17-Jun-2020 05:16 127K
[IMG]Path through water 0..>17-Jun-2020 05:16 121K
[IMG]Pitch 030.png 17-Jun-2020 05:16 80K
[IMG]Roll 030.png 17-Jun-2020 05:16 106K
[IMG]Roll Rate 030.png 17-Jun-2020 05:16 104K
[IMG]Temp & Salinity 030.png17-Jun-2020 05:16 80K
[IMG]T vs. S 030.png 17-Jun-2020 05:16 73K
[IMG]VBD 030.png 17-Jun-2020 05:16 119K
[IMG]Vertical Velocities ..>17-Jun-2020 05:16 132K
[IMG]Backscatter_wlbbfl2 ..>17-Jun-2020 10:19 42K
[IMG]Diveplot 031.png 17-Jun-2020 10:19 204K
[IMG]Diveplot Details 031..>17-Jun-2020 10:19 125K
[IMG]Fluorometer_wlbbfl2 ..>17-Jun-2020 10:19 87K
[IMG]O2 031.png 17-Jun-2020 10:19 123K
[IMG]Path through water 0..>17-Jun-2020 10:19 126K
[IMG]Pitch 031.png 17-Jun-2020 10:19 80K
[IMG]Roll 031.png 17-Jun-2020 10:19 105K
[IMG]Roll Rate 031.png 17-Jun-2020 10:19 107K
[IMG]Temp & Salinity 031.png17-Jun-2020 10:19 79K
[IMG]T vs. S 031.png 17-Jun-2020 10:19 72K
[IMG]VBD 031.png 17-Jun-2020 10:19 117K
[IMG]Vertical Velocities ..>17-Jun-2020 10:19 134K
[IMG]Backscatter_wlbbfl2 ..>17-Jun-2020 14:18 42K
[IMG]Diveplot 032.png 17-Jun-2020 14:18 214K
[IMG]Diveplot Details 032..>17-Jun-2020 14:18 128K
[IMG]Fluorometer_wlbbfl2 ..>17-Jun-2020 14:18 89K
[IMG]O2 032.png 17-Jun-2020 14:18 108K
[IMG]Path through water 0..>17-Jun-2020 14:18 120K
[IMG]Pitch 032.png 17-Jun-2020 14:18 81K
[IMG]Roll 032.png 17-Jun-2020 14:18 103K
[IMG]Roll Rate 032.png 17-Jun-2020 14:18 105K
[IMG]Temp & Salinity 032.png17-Jun-2020 14:18 78K
[IMG]T vs. S 032.png 17-Jun-2020 14:18 70K
[IMG]VBD 032.png 17-Jun-2020 14:18 118K
[IMG]Vertical Velocities ..>17-Jun-2020 14:18 136K
[IMG]Diveplot 033.png 17-Jun-2020 18:45 199K
[IMG]Path through water 0..>17-Jun-2020 18:45 123K
[IMG]Pitch 033.png 17-Jun-2020 18:45 79K
[IMG]Vertical Velocities ..>17-Jun-2020 18:45 117K
[IMG]Backscatter_wlbbfl2 ..>17-Jun-2020 23:11 42K
[IMG]Diveplot Details 033..>17-Jun-2020 23:11 129K
[IMG]Fluorometer_wlbbfl2 ..>17-Jun-2020 23:11 85K
[IMG]O2 033.png 17-Jun-2020 23:11 119K
[IMG]Roll 033.png 17-Jun-2020 23:11 106K
[IMG]Roll Rate 033.png 17-Jun-2020 23:11 102K
[IMG]Temp & Salinity 033.png17-Jun-2020 23:11 77K
[IMG]T vs. S 033.png 17-Jun-2020 23:11 73K
[IMG]VBD 033.png 17-Jun-2020 23:11 117K
[IMG]Diveplot 034.png 17-Jun-2020 23:13 207K
[IMG]Path through water 0..>17-Jun-2020 23:13 119K
[IMG]Pitch 034.png 17-Jun-2020 23:13 78K
[IMG]Roll 034.png 17-Jun-2020 23:13 102K
[IMG]Roll Rate 034.png 17-Jun-2020 23:13 105K
[IMG]Temp & Salinity 034.png17-Jun-2020 23:13 79K
[IMG]T vs. S 034.png 17-Jun-2020 23:13 73K
[IMG]VBD 034.png 17-Jun-2020 23:13 118K
[IMG]Vertical Velocities ..>17-Jun-2020 23:13 127K
[IMG]Backscatter_wlbbfl2 ..>17-Jun-2020 23:13 42K
[IMG]Diveplot Details 034..>17-Jun-2020 23:13 132K
[IMG]Fluorometer_wlbbfl2 ..>17-Jun-2020 23:13 87K
[IMG]O2 034.png 17-Jun-2020 23:13 121K
[IMG]Backscatter_wlbbfl2 ..>18-Jun-2020 03:13 42K
[IMG]Diveplot 035.png 18-Jun-2020 03:13 207K
[IMG]Diveplot Details 035..>18-Jun-2020 03:13 133K
[IMG]Fluorometer_wlbbfl2 ..>18-Jun-2020 03:13 83K
[IMG]O2 035.png 18-Jun-2020 03:13 117K
[IMG]Path through water 0..>18-Jun-2020 03:13 125K
[IMG]Pitch 035.png 18-Jun-2020 03:13 79K
[IMG]Roll 035.png 18-Jun-2020 03:13 105K
[IMG]Roll Rate 035.png 18-Jun-2020 03:13 107K
[IMG]Temp & Salinity 035.png18-Jun-2020 03:13 77K
[IMG]T vs. S 035.png 18-Jun-2020 03:13 73K
[IMG]VBD 035.png 18-Jun-2020 03:13 118K
[IMG]Vertical Velocities ..>18-Jun-2020 03:13 123K
[IMG]Backscatter_wlbbfl2 ..>18-Jun-2020 06:58 43K
[IMG]Diveplot 036.png 18-Jun-2020 06:58 207K
[IMG]Diveplot Details 036..>18-Jun-2020 06:58 131K
[IMG]Fluorometer_wlbbfl2 ..>18-Jun-2020 06:58 85K
[IMG]O2 036.png 18-Jun-2020 06:58 114K
[IMG]Path through water 0..>18-Jun-2020 06:58 119K
[IMG]Pitch 036.png 18-Jun-2020 06:58 80K
[IMG]Roll 036.png 18-Jun-2020 06:58 106K
[IMG]Roll Rate 036.png 18-Jun-2020 06:58 109K
[IMG]Temp & Salinity 036.png18-Jun-2020 06:58 76K
[IMG]T vs. S 036.png 18-Jun-2020 06:58 70K
[IMG]VBD 036.png 18-Jun-2020 06:58 119K
[IMG]Vertical Velocities ..>18-Jun-2020 06:58 119K
[IMG]Backscatter_wlbbfl2 ..>18-Jun-2020 10:48 44K
[IMG]Diveplot 037.png 18-Jun-2020 10:48 202K
[IMG]Diveplot Details 037..>18-Jun-2020 10:48 128K
[IMG]Fluorometer_wlbbfl2 ..>18-Jun-2020 10:48 86K
[IMG]O2 037.png 18-Jun-2020 10:48 110K
[IMG]Path through water 0..>18-Jun-2020 10:48 120K
[IMG]Pitch 037.png 18-Jun-2020 10:48 79K
[IMG]Roll 037.png 18-Jun-2020 10:48 102K
[IMG]Roll Rate 037.png 18-Jun-2020 10:48 101K
[IMG]Temp & Salinity 037.png18-Jun-2020 10:48 71K
[IMG]T vs. S 037.png 18-Jun-2020 10:48 68K
[IMG]VBD 037.png 18-Jun-2020 10:48 117K
[IMG]Vertical Velocities ..>18-Jun-2020 10:48 116K
[IMG]Backscatter_wlbbfl2 ..>18-Jun-2020 14:39 43K
[IMG]Diveplot 038.png 18-Jun-2020 14:39 193K
[IMG]Diveplot Details 038..>18-Jun-2020 14:39 127K
[IMG]Fluorometer_wlbbfl2 ..>18-Jun-2020 14:39 90K
[IMG]O2 038.png 18-Jun-2020 14:39 106K
[IMG]Path through water 0..>18-Jun-2020 14:39 125K
[IMG]Pitch 038.png 18-Jun-2020 14:39 80K
[IMG]Roll 038.png 18-Jun-2020 14:39 104K
[IMG]Roll Rate 038.png 18-Jun-2020 14:39 100K
[IMG]Temp & Salinity 038.png18-Jun-2020 14:39 75K
[IMG]T vs. S 038.png 18-Jun-2020 14:39 72K
[IMG]VBD 038.png 18-Jun-2020 14:39 119K
[IMG]Vertical Velocities ..>18-Jun-2020 14:39 114K
[IMG]Backscatter_wlbbfl2 ..>18-Jun-2020 18:26 42K
[IMG]Diveplot 039.png 18-Jun-2020 18:26 198K
[IMG]Diveplot Details 039..>18-Jun-2020 18:26 127K
[IMG]Fluorometer_wlbbfl2 ..>18-Jun-2020 18:26 91K
[IMG]O2 039.png 18-Jun-2020 18:26 109K
[IMG]Path through water 0..>18-Jun-2020 18:26 122K
[IMG]Pitch 039.png 18-Jun-2020 18:26 78K
[IMG]Roll 039.png 18-Jun-2020 18:26 105K
[IMG]Roll Rate 039.png 18-Jun-2020 18:26 102K
[IMG]Temp & Salinity 039.png18-Jun-2020 18:26 75K
[IMG]T vs. S 039.png 18-Jun-2020 18:26 75K
[IMG]VBD 039.png 18-Jun-2020 18:26 124K
[IMG]Vertical Velocities ..>18-Jun-2020 18:26 114K
[IMG]Backscatter_wlbbfl2 ..>18-Jun-2020 22:24 42K
[IMG]Diveplot 040.png 18-Jun-2020 22:24 200K
[IMG]Diveplot Details 040..>18-Jun-2020 22:24 126K
[IMG]Fluorometer_wlbbfl2 ..>18-Jun-2020 22:24 90K
[IMG]O2 040.png 18-Jun-2020 22:24 112K
[IMG]Path through water 0..>18-Jun-2020 22:24 118K
[IMG]Pitch 040.png 18-Jun-2020 22:24 82K
[IMG]Roll 040.png 18-Jun-2020 22:24 101K
[IMG]Roll Rate 040.png 18-Jun-2020 22:24 101K
[IMG]Temp & Salinity 040.png18-Jun-2020 22:24 74K
[IMG]T vs. S 040.png 18-Jun-2020 22:24 78K
[IMG]VBD 040.png 18-Jun-2020 22:24 124K
[IMG]Vertical Velocities ..>18-Jun-2020 22:24 112K
[IMG]Backscatter_wlbbfl2 ..>19-Jun-2020 02:32 43K
[IMG]Diveplot 041.png 19-Jun-2020 02:32 194K
[IMG]Diveplot Details 041..>19-Jun-2020 02:32 127K
[IMG]Fluorometer_wlbbfl2 ..>19-Jun-2020 02:32 88K
[IMG]O2 041.png 19-Jun-2020 02:32 116K
[IMG]Path through water 0..>19-Jun-2020 02:32 112K
[IMG]Pitch 041.png 19-Jun-2020 02:32 80K
[IMG]Roll 041.png 19-Jun-2020 02:32 102K
[IMG]Roll Rate 041.png 19-Jun-2020 02:32 100K
[IMG]Temp & Salinity 041.png19-Jun-2020 02:32 74K
[IMG]T vs. S 041.png 19-Jun-2020 02:32 74K
[IMG]VBD 041.png 19-Jun-2020 02:32 124K
[IMG]Vertical Velocities ..>19-Jun-2020 02:32 119K
[IMG]Backscatter_wlbbfl2 ..>19-Jun-2020 07:03 42K
[IMG]Diveplot 042.png 19-Jun-2020 07:03 199K
[IMG]Diveplot Details 042..>19-Jun-2020 07:03 129K
[IMG]Fluorometer_wlbbfl2 ..>19-Jun-2020 07:03 91K
[IMG]O2 042.png 19-Jun-2020 07:03 115K
[IMG]Path through water 0..>19-Jun-2020 07:03 119K
[IMG]Pitch 042.png 19-Jun-2020 07:03 79K
[IMG]Roll 042.png 19-Jun-2020 07:03 105K
[IMG]Roll Rate 042.png 19-Jun-2020 07:03 103K
[IMG]Temp & Salinity 042.png19-Jun-2020 07:03 73K
[IMG]T vs. S 042.png 19-Jun-2020 07:03 74K
[IMG]VBD 042.png 19-Jun-2020 07:03 119K
[IMG]Vertical Velocities ..>19-Jun-2020 07:03 124K
[IMG]Backscatter_wlbbfl2 ..>19-Jun-2020 11:29 42K
[IMG]Diveplot 043.png 19-Jun-2020 11:29 207K
[IMG]Diveplot Details 043..>19-Jun-2020 11:29 133K
[IMG]Fluorometer_wlbbfl2 ..>19-Jun-2020 11:29 89K
[IMG]O2 043.png 19-Jun-2020 11:29 119K
[IMG]Path through water 0..>19-Jun-2020 11:29 119K
[IMG]Pitch 043.png 19-Jun-2020 11:29 80K
[IMG]Roll 043.png 19-Jun-2020 11:29 103K
[IMG]Roll Rate 043.png 19-Jun-2020 11:29 101K
[IMG]Temp & Salinity 043.png19-Jun-2020 11:29 75K
[IMG]T vs. S 043.png 19-Jun-2020 11:29 74K
[IMG]VBD 043.png 19-Jun-2020 11:29 119K
[IMG]Vertical Velocities ..>19-Jun-2020 11:29 132K
[IMG]Backscatter_wlbbfl2 ..>19-Jun-2020 16:06 42K
[IMG]Diveplot 044.png 19-Jun-2020 16:06 200K
[IMG]Diveplot Details 044..>19-Jun-2020 16:06 131K
[IMG]Fluorometer_wlbbfl2 ..>19-Jun-2020 16:06 87K
[IMG]O2 044.png 19-Jun-2020 16:06 117K
[IMG]Path through water 0..>19-Jun-2020 16:06 111K
[IMG]Pitch 044.png 19-Jun-2020 16:06 82K
[IMG]Roll 044.png 19-Jun-2020 16:06 100K
[IMG]Roll Rate 044.png 19-Jun-2020 16:06 102K
[IMG]Temp & Salinity 044.png19-Jun-2020 16:06 76K
[IMG]T vs. S 044.png 19-Jun-2020 16:06 74K
[IMG]VBD 044.png 19-Jun-2020 16:06 116K
[IMG]Vertical Velocities ..>19-Jun-2020 16:06 129K
[IMG]Backscatter_wlbbfl2 ..>19-Jun-2020 20:39 42K
[IMG]Diveplot 045.png 19-Jun-2020 20:39 193K
[IMG]Diveplot Details 045..>19-Jun-2020 20:39 121K
[IMG]Fluorometer_wlbbfl2 ..>19-Jun-2020 20:39 87K
[IMG]O2 045.png 19-Jun-2020 20:39 117K
[IMG]Path through water 0..>19-Jun-2020 20:39 110K
[IMG]Pitch 045.png 19-Jun-2020 20:39 81K
[IMG]Roll 045.png 19-Jun-2020 20:39 102K
[IMG]Roll Rate 045.png 19-Jun-2020 20:39 100K
[IMG]Temp & Salinity 045.png19-Jun-2020 20:39 77K
[IMG]T vs. S 045.png 19-Jun-2020 20:39 79K
[IMG]VBD 045.png 19-Jun-2020 20:39 123K
[IMG]Vertical Velocities ..>19-Jun-2020 20:39 124K
[IMG]Backscatter_wlbbfl2 ..>20-Jun-2020 01:08 42K
[IMG]Diveplot 046.png 20-Jun-2020 01:08 192K
[IMG]Diveplot Details 046..>20-Jun-2020 01:08 121K
[IMG]Fluorometer_wlbbfl2 ..>20-Jun-2020 01:08 84K
[IMG]O2 046.png 20-Jun-2020 01:08 122K
[IMG]Path through water 0..>20-Jun-2020 01:08 113K
[IMG]Pitch 046.png 20-Jun-2020 01:08 82K
[IMG]Roll 046.png 20-Jun-2020 01:08 102K
[IMG]Roll Rate 046.png 20-Jun-2020 01:08 100K
[IMG]Temp & Salinity 046.png20-Jun-2020 01:08 76K
[IMG]T vs. S 046.png 20-Jun-2020 01:08 78K
[IMG]VBD 046.png 20-Jun-2020 01:08 125K
[IMG]Vertical Velocities ..>20-Jun-2020 01:08 120K
[IMG]Backscatter_wlbbfl2 ..>20-Jun-2020 05:41 41K
[IMG]Diveplot 047.png 20-Jun-2020 05:41 200K
[IMG]Diveplot Details 047..>20-Jun-2020 05:41 130K
[IMG]Fluorometer_wlbbfl2 ..>20-Jun-2020 05:41 86K
[IMG]O2 047.png 20-Jun-2020 05:41 122K
[IMG]Path through water 0..>20-Jun-2020 05:41 114K
[IMG]Pitch 047.png 20-Jun-2020 05:41 82K
[IMG]Roll 047.png 20-Jun-2020 05:41 105K
[IMG]Roll Rate 047.png 20-Jun-2020 05:41 102K
[IMG]Temp & Salinity 047.png20-Jun-2020 05:41 77K
[IMG]T vs. S 047.png 20-Jun-2020 05:41 76K
[IMG]VBD 047.png 20-Jun-2020 05:41 125K
[IMG]Vertical Velocities ..>20-Jun-2020 05:41 122K
[IMG]Backscatter_wlbbfl2 ..>20-Jun-2020 09:48 42K
[IMG]Diveplot 048.png 20-Jun-2020 09:48 199K
[IMG]Diveplot Details 048..>20-Jun-2020 09:48 122K
[IMG]Fluorometer_wlbbfl2 ..>20-Jun-2020 09:48 89K
[IMG]O2 048.png 20-Jun-2020 09:48 120K
[IMG]Path through water 0..>20-Jun-2020 09:48 109K
[IMG]Pitch 048.png 20-Jun-2020 09:48 78K
[IMG]Roll 048.png 20-Jun-2020 09:48 103K
[IMG]Roll Rate 048.png 20-Jun-2020 09:48 100K
[IMG]Temp & Salinity 048.png20-Jun-2020 09:48 79K
[IMG]T vs. S 048.png 20-Jun-2020 09:48 76K
[IMG]VBD 048.png 20-Jun-2020 09:48 126K
[IMG]Vertical Velocities ..>20-Jun-2020 09:48 119K
[IMG]Backscatter_wlbbfl2 ..>20-Jun-2020 14:03 42K
[IMG]Diveplot 049.png 20-Jun-2020 14:03 200K
[IMG]Diveplot Details 049..>20-Jun-2020 14:03 128K
[IMG]Fluorometer_wlbbfl2 ..>20-Jun-2020 14:03 87K
[IMG]O2 049.png 20-Jun-2020 14:03 105K
[IMG]Path through water 0..>20-Jun-2020 14:03 115K
[IMG]Pitch 049.png 20-Jun-2020 14:03 79K
[IMG]Roll 049.png 20-Jun-2020 14:03 105K
[IMG]Roll Rate 049.png 20-Jun-2020 14:03 101K
[IMG]Temp & Salinity 049.png20-Jun-2020 14:03 77K
[IMG]T vs. S 049.png 20-Jun-2020 14:03 77K
[IMG]VBD 049.png 20-Jun-2020 14:03 126K
[IMG]Vertical Velocities ..>20-Jun-2020 14:03 113K
[IMG]Backscatter_wlbbfl2 ..>20-Jun-2020 18:08 42K
[IMG]Diveplot 050.png 20-Jun-2020 18:08 203K
[IMG]Diveplot Details 050..>20-Jun-2020 18:08 130K
[IMG]Fluorometer_wlbbfl2 ..>20-Jun-2020 18:08 87K
[IMG]O2 050.png 20-Jun-2020 18:08 113K
[IMG]Path through water 0..>20-Jun-2020 18:08 125K
[IMG]Pitch 050.png 20-Jun-2020 18:08 80K
[IMG]Roll 050.png 20-Jun-2020 18:08 102K
[IMG]Roll Rate 050.png 20-Jun-2020 18:08 101K
[IMG]Temp & Salinity 050.png20-Jun-2020 18:08 78K
[IMG]T vs. S 050.png 20-Jun-2020 18:08 83K
[IMG]VBD 050.png 20-Jun-2020 18:08 124K
[IMG]Vertical Velocities ..>20-Jun-2020 18:08 119K
[IMG]Backscatter_wlbbfl2 ..>20-Jun-2020 22:39 50K
[IMG]Diveplot 051.png 20-Jun-2020 22:39 203K
[IMG]Diveplot Details 051..>20-Jun-2020 22:39 130K
[IMG]Fluorometer_wlbbfl2 ..>20-Jun-2020 22:39 91K
[IMG]O2 051.png 20-Jun-2020 22:39 125K
[IMG]Path through water 0..>20-Jun-2020 22:39 123K
[IMG]Pitch 051.png 20-Jun-2020 22:39 81K
[IMG]Roll 051.png 20-Jun-2020 22:39 104K
[IMG]Roll Rate 051.png 20-Jun-2020 22:39 102K
[IMG]Temp & Salinity 051.png20-Jun-2020 22:39 82K
[IMG]T vs. S 051.png 20-Jun-2020 22:39 83K
[IMG]VBD 051.png 20-Jun-2020 22:39 122K
[IMG]Vertical Velocities ..>20-Jun-2020 22:39 124K
[IMG]Backscatter_wlbbfl2 ..>21-Jun-2020 07:15 40K
[IMG]Diveplot 053.png 21-Jun-2020 07:15 198K
[IMG]Diveplot Details 053..>21-Jun-2020 07:15 130K
[IMG]Fluorometer_wlbbfl2 ..>21-Jun-2020 07:15 82K
[IMG]O2 053.png 21-Jun-2020 07:15 118K
[IMG]Path through water 0..>21-Jun-2020 07:15 120K
[IMG]Pitch 053.png 21-Jun-2020 07:15 83K
[IMG]Roll 053.png 21-Jun-2020 07:15 104K
[IMG]Roll Rate 053.png 21-Jun-2020 07:15 101K
[IMG]Temp & Salinity 053.png21-Jun-2020 07:15 80K
[IMG]T vs. S 053.png 21-Jun-2020 07:15 80K
[IMG]VBD 053.png 21-Jun-2020 07:15 125K
[IMG]Vertical Velocities ..>21-Jun-2020 07:15 126K
[IMG]Backscatter_wlbbfl2 ..>21-Jun-2020 11:42 43K
[IMG]Diveplot 054.png 21-Jun-2020 11:42 201K
[IMG]Diveplot Details 054..>21-Jun-2020 11:42 133K
[IMG]Fluorometer_wlbbfl2 ..>21-Jun-2020 11:42 84K
[IMG]O2 054.png 21-Jun-2020 11:42 118K
[IMG]Path through water 0..>21-Jun-2020 11:42 121K
[IMG]Pitch 054.png 21-Jun-2020 11:42 82K
[IMG]Roll 054.png 21-Jun-2020 11:42 103K
[IMG]Roll Rate 054.png 21-Jun-2020 11:42 101K
[IMG]Temp & Salinity 054.png21-Jun-2020 11:42 79K
[IMG]T vs. S 054.png 21-Jun-2020 11:42 76K
[IMG]VBD 054.png 21-Jun-2020 11:42 122K
[IMG]Vertical Velocities ..>21-Jun-2020 11:42 119K
[IMG]Backscatter_wlbbfl2 ..>21-Jun-2020 16:32 45K
[IMG]Diveplot 055.png 21-Jun-2020 16:32 199K
[IMG]Diveplot Details 055..>21-Jun-2020 16:32 131K
[IMG]Fluorometer_wlbbfl2 ..>21-Jun-2020 16:32 88K
[IMG]O2 055.png 21-Jun-2020 16:32 102K
[IMG]Path through water 0..>21-Jun-2020 16:32 116K
[IMG]Pitch 055.png 21-Jun-2020 16:32 81K
[IMG]Roll 055.png 21-Jun-2020 16:32 103K
[IMG]Roll Rate 055.png 21-Jun-2020 16:32 102K
[IMG]Temp & Salinity 055.png21-Jun-2020 16:32 79K
[IMG]T vs. S 055.png 21-Jun-2020 16:32 77K
[IMG]VBD 055.png 21-Jun-2020 16:32 125K
[IMG]Vertical Velocities ..>21-Jun-2020 16:32 121K
[IMG]Backscatter_wlbbfl2 ..>21-Jun-2020 21:09 42K
[IMG]Diveplot 056.png 21-Jun-2020 21:09 210K
[IMG]Diveplot Details 056..>21-Jun-2020 21:09 126K
[IMG]Fluorometer_wlbbfl2 ..>21-Jun-2020 21:09 86K
[IMG]O2 056.png 21-Jun-2020 21:09 122K
[IMG]Path through water 0..>21-Jun-2020 21:09 119K
[IMG]Pitch 056.png 21-Jun-2020 21:09 83K
[IMG]Roll 056.png 21-Jun-2020 21:09 104K
[IMG]Roll Rate 056.png 21-Jun-2020 21:09 101K
[IMG]Temp & Salinity 056.png21-Jun-2020 21:09 79K
[IMG]T vs. S 056.png 21-Jun-2020 21:09 76K
[IMG]VBD 056.png 21-Jun-2020 21:09 124K
[IMG]Vertical Velocities ..>21-Jun-2020 21:09 128K
[IMG]Backscatter_wlbbfl2 ..>22-Jun-2020 02:20 42K
[IMG]Diveplot 057.png 22-Jun-2020 02:20 202K
[IMG]Diveplot Details 057..>22-Jun-2020 02:20 123K
[IMG]Fluorometer_wlbbfl2 ..>22-Jun-2020 02:20 87K
[IMG]O2 057.png 22-Jun-2020 02:20 122K
[IMG]Path through water 0..>22-Jun-2020 02:20 122K
[IMG]Pitch 057.png 22-Jun-2020 02:20 81K
[IMG]Roll 057.png 22-Jun-2020 02:20 103K
[IMG]Roll Rate 057.png 22-Jun-2020 02:20 101K
[IMG]Temp & Salinity 057.png22-Jun-2020 02:20 78K
[IMG]T vs. S 057.png 22-Jun-2020 02:20 74K
[IMG]VBD 057.png 22-Jun-2020 02:20 126K
[IMG]Vertical Velocities ..>22-Jun-2020 02:20 124K
[IMG]Backscatter_wlbbfl2 ..>22-Jun-2020 07:37 43K
[IMG]Diveplot 058.png 22-Jun-2020 07:37 200K
[IMG]Diveplot Details 058..>22-Jun-2020 07:37 123K
[IMG]Fluorometer_wlbbfl2 ..>22-Jun-2020 07:37 87K
[IMG]O2 058.png 22-Jun-2020 07:37 125K
[IMG]Path through water 0..>22-Jun-2020 07:37 126K
[IMG]Pitch 058.png 22-Jun-2020 07:37 81K
[IMG]Roll 058.png 22-Jun-2020 07:37 102K
[IMG]Roll Rate 058.png 22-Jun-2020 07:37 101K
[IMG]Temp & Salinity 058.png22-Jun-2020 07:37 80K
[IMG]T vs. S 058.png 22-Jun-2020 07:37 72K
[IMG]VBD 058.png 22-Jun-2020 07:37 119K
[IMG]Vertical Velocities ..>22-Jun-2020 07:37 117K
[IMG]Backscatter_wlbbfl2 ..>22-Jun-2020 12:43 42K
[IMG]Diveplot 059.png 22-Jun-2020 12:43 200K
[IMG]Diveplot Details 059..>22-Jun-2020 12:43 123K
[IMG]Fluorometer_wlbbfl2 ..>22-Jun-2020 12:43 84K
[IMG]O2 059.png 22-Jun-2020 12:43 124K
[IMG]Path through water 0..>22-Jun-2020 12:43 119K
[IMG]Pitch 059.png 22-Jun-2020 12:43 81K
[IMG]Roll 059.png 22-Jun-2020 12:43 102K
[IMG]Roll Rate 059.png 22-Jun-2020 12:43 102K
[IMG]Temp & Salinity 059.png22-Jun-2020 12:43 80K
[IMG]T vs. S 059.png 22-Jun-2020 12:43 72K
[IMG]VBD 059.png 22-Jun-2020 12:43 120K
[IMG]Vertical Velocities ..>22-Jun-2020 12:43 126K
[IMG]Backscatter_wlbbfl2 ..>22-Jun-2020 17:48 42K
[IMG]Diveplot 060.png 22-Jun-2020 17:48 186K
[IMG]Diveplot Details 060..>22-Jun-2020 17:48 121K
[IMG]Fluorometer_wlbbfl2 ..>22-Jun-2020 17:48 84K
[IMG]O2 060.png 22-Jun-2020 17:48 100K
[IMG]Path through water 0..>22-Jun-2020 17:48 123K
[IMG]Pitch 060.png 22-Jun-2020 17:48 83K
[IMG]Roll 060.png 22-Jun-2020 17:48 104K
[IMG]Roll Rate 060.png 22-Jun-2020 17:48 101K
[IMG]Temp & Salinity 060.png22-Jun-2020 17:48 72K
[IMG]T vs. S 060.png 22-Jun-2020 17:48 64K
[IMG]VBD 060.png 22-Jun-2020 17:48 114K
[IMG]Vertical Velocities ..>22-Jun-2020 17:48 111K
[IMG]Backscatter_wlbbfl2 ..>22-Jun-2020 23:10 42K
[IMG]Diveplot 061.png 22-Jun-2020 23:10 206K
[IMG]Diveplot Details 061..>22-Jun-2020 23:10 126K
[IMG]Fluorometer_wlbbfl2 ..>22-Jun-2020 23:10 83K
[IMG]O2 061.png 22-Jun-2020 23:10 121K
[IMG]Path through water 0..>22-Jun-2020 23:10 128K
[IMG]Pitch 061.png 22-Jun-2020 23:10 82K
[IMG]Roll 061.png 22-Jun-2020 23:10 103K
[IMG]Roll Rate 061.png 22-Jun-2020 23:10 102K
[IMG]Temp & Salinity 061.png22-Jun-2020 23:10 80K
[IMG]T vs. S 061.png 22-Jun-2020 23:10 74K
[IMG]VBD 061.png 22-Jun-2020 23:10 119K
[IMG]Vertical Velocities ..>22-Jun-2020 23:10 129K
[IMG]Backscatter_wlbbfl2 ..>23-Jun-2020 04:20 42K
[IMG]Diveplot 062.png 23-Jun-2020 04:20 203K
[IMG]Diveplot Details 062..>23-Jun-2020 04:20 124K
[IMG]Fluorometer_wlbbfl2 ..>23-Jun-2020 04:20 89K
[IMG]O2 062.png 23-Jun-2020 04:20 125K
[IMG]Path through water 0..>23-Jun-2020 04:20 122K
[IMG]Pitch 062.png 23-Jun-2020 04:20 83K
[IMG]Roll 062.png 23-Jun-2020 04:20 102K
[IMG]Roll Rate 062.png 23-Jun-2020 04:20 102K
[IMG]Temp & Salinity 062.png23-Jun-2020 04:20 79K
[IMG]T vs. S 062.png 23-Jun-2020 04:20 71K
[IMG]VBD 062.png 23-Jun-2020 04:20 119K
[IMG]Vertical Velocities ..>23-Jun-2020 04:20 137K
[IMG]Backscatter_wlbbfl2 ..>23-Jun-2020 14:24 42K
[IMG]Diveplot 064.png 23-Jun-2020 14:24 189K
[IMG]Diveplot Details 064..>23-Jun-2020 14:24 122K
[IMG]Fluorometer_wlbbfl2 ..>23-Jun-2020 14:24 88K
[IMG]O2 064.png 23-Jun-2020 14:24 99K
[IMG]Path through water 0..>23-Jun-2020 14:24 117K
[IMG]Pitch 064.png 23-Jun-2020 14:24 85K
[IMG]Roll 064.png 23-Jun-2020 14:24 102K
[IMG]Roll Rate 064.png 23-Jun-2020 14:24 103K
[IMG]Temp & Salinity 064.png23-Jun-2020 14:24 71K
[IMG]T vs. S 064.png 23-Jun-2020 14:24 61K
[IMG]VBD 064.png 23-Jun-2020 14:24 113K
[IMG]Vertical Velocities ..>23-Jun-2020 14:24 116K
[IMG]Diveplot 065.png 24-Jun-2020 00:41 203K
[IMG]Path through water 0..>24-Jun-2020 00:41 127K
[IMG]Pitch 065.png 24-Jun-2020 00:41 82K
[IMG]Roll 065.png 24-Jun-2020 00:41 103K
[IMG]Roll Rate 065.png 24-Jun-2020 00:41 102K
[IMG]Temp & Salinity 065.png24-Jun-2020 00:41 80K
[IMG]VBD 065.png 24-Jun-2020 00:41 117K
[IMG]Vertical Velocities ..>24-Jun-2020 00:41 130K
[IMG]Backscatter_wlbbfl2 ..>24-Jun-2020 00:50 42K
[IMG]Diveplot Details 065..>24-Jun-2020 00:50 125K
[IMG]Fluorometer_wlbbfl2 ..>24-Jun-2020 00:50 84K
[IMG]O2 065.png 24-Jun-2020 00:50 122K
[IMG]T vs. S 065.png 24-Jun-2020 00:50 72K
[IMG]Backscatter_wlbbfl2 ..>24-Jun-2020 05:58 42K
[IMG]Diveplot 066.png 24-Jun-2020 05:58 199K
[IMG]Diveplot Details 066..>24-Jun-2020 05:58 123K
[IMG]Fluorometer_wlbbfl2 ..>24-Jun-2020 05:58 80K
[IMG]O2 066.png 24-Jun-2020 05:58 124K
[IMG]Path through water 0..>24-Jun-2020 05:58 127K
[IMG]Pitch 066.png 24-Jun-2020 05:58 81K
[IMG]Roll 066.png 24-Jun-2020 05:58 105K
[IMG]Roll Rate 066.png 24-Jun-2020 05:58 100K
[IMG]Temp & Salinity 066.png24-Jun-2020 05:58 80K
[IMG]T vs. S 066.png 24-Jun-2020 05:58 72K
[IMG]VBD 066.png 24-Jun-2020 05:58 116K
[IMG]Vertical Velocities ..>24-Jun-2020 05:58 126K
[IMG]Backscatter_wlbbfl2 ..>24-Jun-2020 06:09 42K
[IMG]Diveplot 067.png 24-Jun-2020 06:09 203K
[IMG]Diveplot Details 067..>24-Jun-2020 06:09 125K
[IMG]Fluorometer_wlbbfl2 ..>24-Jun-2020 06:09 82K
[IMG]O2 067.png 24-Jun-2020 06:09 122K
[IMG]Path through water 0..>24-Jun-2020 06:09 128K
[IMG]Pitch 067.png 24-Jun-2020 06:09 81K
[IMG]Roll 067.png 24-Jun-2020 06:09 103K
[IMG]Roll Rate 067.png 24-Jun-2020 06:09 101K
[IMG]Temp & Salinity 067.png24-Jun-2020 06:09 80K
[IMG]T vs. S 067.png 24-Jun-2020 06:09 71K
[IMG]VBD 067.png 24-Jun-2020 06:09 118K
[IMG]Vertical Velocities ..>24-Jun-2020 06:09 129K
[IMG]Backscatter_wlbbfl2 ..>24-Jun-2020 11:16 41K
[IMG]Diveplot 068.png 24-Jun-2020 11:16 196K
[IMG]Diveplot Details 068..>24-Jun-2020 11:16 123K
[IMG]Fluorometer_wlbbfl2 ..>24-Jun-2020 11:16 86K
[IMG]O2 068.png 24-Jun-2020 11:16 122K
[IMG]Path through water 0..>24-Jun-2020 11:16 123K
[IMG]Pitch 068.png 24-Jun-2020 11:16 82K
[IMG]Roll 068.png 24-Jun-2020 11:16 103K
[IMG]Roll Rate 068.png 24-Jun-2020 11:16 102K
[IMG]Temp & Salinity 068.png24-Jun-2020 11:16 79K
[IMG]T vs. S 068.png 24-Jun-2020 11:16 72K
[IMG]VBD 068.png 24-Jun-2020 11:16 118K
[IMG]Vertical Velocities ..>24-Jun-2020 11:16 125K
[IMG]Backscatter_wlbbfl2 ..>24-Jun-2020 16:23 48K
[IMG]Diveplot 069.png 24-Jun-2020 16:23 212K
[IMG]Diveplot Details 069..>24-Jun-2020 16:23 126K
[IMG]Fluorometer_wlbbfl2 ..>24-Jun-2020 16:23 85K
[IMG]O2 069.png 24-Jun-2020 16:23 120K
[IMG]Path through water 0..>24-Jun-2020 16:23 119K
[IMG]Pitch 069.png 24-Jun-2020 16:23 80K
[IMG]Roll 069.png 24-Jun-2020 16:23 104K
[IMG]Roll Rate 069.png 24-Jun-2020 16:23 106K
[IMG]Temp & Salinity 069.png24-Jun-2020 16:23 80K
[IMG]T vs. S 069.png 24-Jun-2020 16:23 72K
[IMG]VBD 069.png 24-Jun-2020 16:23 118K
[IMG]Vertical Velocities ..>24-Jun-2020 16:23 132K
[IMG]Backscatter_wlbbfl2 ..>24-Jun-2020 21:28 42K
[IMG]Diveplot 070.png 24-Jun-2020 21:28 212K
[IMG]Diveplot Details 070..>24-Jun-2020 21:28 127K
[IMG]Fluorometer_wlbbfl2 ..>24-Jun-2020 21:28 82K
[IMG]O2 070.png 24-Jun-2020 21:28 123K
[IMG]Path through water 0..>24-Jun-2020 21:28 120K
[IMG]Pitch 070.png 24-Jun-2020 21:28 82K
[IMG]Roll 070.png 24-Jun-2020 21:28 103K
[IMG]Roll Rate 070.png 24-Jun-2020 21:28 104K
[IMG]Temp & Salinity 070.png24-Jun-2020 21:28 76K
[IMG]T vs. S 070.png 24-Jun-2020 21:28 73K
[IMG]VBD 070.png 24-Jun-2020 21:28 119K
[IMG]Vertical Velocities ..>24-Jun-2020 21:28 127K
[IMG]Backscatter_wlbbfl2 ..>25-Jun-2020 06:58 43K
[IMG]Diveplot 071.png 25-Jun-2020 06:58 211K
[IMG]Diveplot Details 071..>25-Jun-2020 06:58 126K
[IMG]Fluorometer_wlbbfl2 ..>25-Jun-2020 06:58 83K
[IMG]O2 071.png 25-Jun-2020 06:58 125K
[IMG]Path through water 0..>25-Jun-2020 06:58 117K
[IMG]Pitch 071.png 25-Jun-2020 06:58 83K
[IMG]Roll 071.png 25-Jun-2020 06:58 105K
[IMG]Roll Rate 071.png 25-Jun-2020 06:58 105K
[IMG]Temp & Salinity 071.png25-Jun-2020 06:58 79K
[IMG]T vs. S 071.png 25-Jun-2020 06:58 74K
[IMG]VBD 071.png 25-Jun-2020 06:58 118K
[IMG]Vertical Velocities ..>25-Jun-2020 06:58 133K
[IMG]Backscatter_wlbbfl2 ..>25-Jun-2020 07:04 42K
[IMG]Diveplot 072.png 25-Jun-2020 07:04 212K
[IMG]Diveplot Details 072..>25-Jun-2020 07:04 127K
[IMG]Fluorometer_wlbbfl2 ..>25-Jun-2020 07:04 82K
[IMG]O2 072.png 25-Jun-2020 07:04 121K
[IMG]Path through water 0..>25-Jun-2020 07:04 116K
[IMG]Pitch 072.png 25-Jun-2020 07:04 81K
[IMG]Roll 072.png 25-Jun-2020 07:04 103K
[IMG]Roll Rate 072.png 25-Jun-2020 07:04 104K
[IMG]Temp & Salinity 072.png25-Jun-2020 07:04 79K
[IMG]T vs. S 072.png 25-Jun-2020 07:04 72K
[IMG]VBD 072.png 25-Jun-2020 07:04 116K
[IMG]Vertical Velocities ..>25-Jun-2020 07:04 129K
[IMG]Backscatter_wlbbfl2 ..>25-Jun-2020 11:41 41K
[IMG]Diveplot 073.png 25-Jun-2020 11:41 202K
[IMG]Diveplot Details 073..>25-Jun-2020 11:41 132K
[IMG]Fluorometer_wlbbfl2 ..>25-Jun-2020 11:41 85K
[IMG]O2 073.png 25-Jun-2020 11:41 83K
[IMG]Path through water 0..>25-Jun-2020 11:41 110K
[IMG]Pitch 073.png 25-Jun-2020 11:41 80K
[IMG]Roll 073.png 25-Jun-2020 11:41 103K
[IMG]Roll Rate 073.png 25-Jun-2020 11:41 106K
[IMG]Temp & Salinity 073.png25-Jun-2020 11:41 69K
[IMG]T vs. S 073.png 25-Jun-2020 11:41 65K
[IMG]VBD 073.png 25-Jun-2020 11:41 111K
[IMG]Vertical Velocities ..>25-Jun-2020 11:41 105K
[IMG]Diveplot 074.png 25-Jun-2020 16:20 215K
[IMG]Path through water 0..>25-Jun-2020 16:20 117K
[IMG]Pitch 074.png 25-Jun-2020 16:20 82K
[IMG]Roll 074.png 25-Jun-2020 16:20 103K
[IMG]Roll Rate 074.png 25-Jun-2020 16:20 106K
[IMG]Vertical Velocities ..>25-Jun-2020 16:20 133K
[IMG]Backscatter_wlbbfl2 ..>25-Jun-2020 16:20 42K
[IMG]Diveplot Details 074..>25-Jun-2020 16:20 126K
[IMG]Fluorometer_wlbbfl2 ..>25-Jun-2020 16:20 85K
[IMG]O2 074.png 25-Jun-2020 16:20 118K
[IMG]Temp & Salinity 074.png25-Jun-2020 16:20 82K
[IMG]T vs. S 074.png 25-Jun-2020 16:20 72K
[IMG]VBD 074.png 25-Jun-2020 16:20 117K
[IMG]Backscatter_wlbbfl2 ..>26-Jun-2020 01:26 42K
[IMG]Diveplot 076.png 26-Jun-2020 01:26 197K
[IMG]Diveplot Details 076..>26-Jun-2020 01:26 130K
[IMG]Fluorometer_wlbbfl2 ..>26-Jun-2020 01:26 87K
[IMG]O2 076.png 26-Jun-2020 01:26 122K
[IMG]Path through water 0..>26-Jun-2020 01:26 118K
[IMG]Pitch 076.png 26-Jun-2020 01:26 84K
[IMG]Roll 076.png 26-Jun-2020 01:26 101K
[IMG]Roll Rate 076.png 26-Jun-2020 01:26 104K
[IMG]Temp & Salinity 076.png26-Jun-2020 01:26 79K
[IMG]T vs. S 076.png 26-Jun-2020 01:26 80K
[IMG]VBD 076.png 26-Jun-2020 01:26 124K
[IMG]Vertical Velocities ..>26-Jun-2020 01:26 126K
[IMG]Backscatter_wlbbfl2 ..>26-Jun-2020 06:33 42K
[IMG]Diveplot 077.png 26-Jun-2020 06:33 206K
[IMG]Diveplot Details 077..>26-Jun-2020 06:33 124K
[IMG]Fluorometer_wlbbfl2 ..>26-Jun-2020 06:33 86K
[IMG]O2 077.png 26-Jun-2020 06:33 125K
[IMG]Path through water 0..>26-Jun-2020 06:33 125K
[IMG]Pitch 077.png 26-Jun-2020 06:33 82K
[IMG]Roll 077.png 26-Jun-2020 06:33 103K
[IMG]Roll Rate 077.png 26-Jun-2020 06:33 102K
[IMG]Temp & Salinity 077.png26-Jun-2020 06:33 79K
[IMG]T vs. S 077.png 26-Jun-2020 06:33 79K
[IMG]VBD 077.png 26-Jun-2020 06:33 124K
[IMG]Vertical Velocities ..>26-Jun-2020 06:33 123K
[IMG]Backscatter_wlbbfl2 ..>26-Jun-2020 11:15 42K
[IMG]Diveplot 078.png 26-Jun-2020 11:15 203K
[IMG]Diveplot Details 078..>26-Jun-2020 11:15 125K
[IMG]Fluorometer_wlbbfl2 ..>26-Jun-2020 11:15 85K
[IMG]O2 078.png 26-Jun-2020 11:15 122K
[IMG]Path through water 0..>26-Jun-2020 11:15 121K
[IMG]Pitch 078.png 26-Jun-2020 11:15 81K
[IMG]Roll 078.png 26-Jun-2020 11:15 102K
[IMG]Roll Rate 078.png 26-Jun-2020 11:15 99K
[IMG]Temp & Salinity 078.png26-Jun-2020 11:15 79K
[IMG]T vs. S 078.png 26-Jun-2020 11:15 74K
[IMG]VBD 078.png 26-Jun-2020 11:15 118K
[IMG]Vertical Velocities ..>26-Jun-2020 11:15 129K
[IMG]Backscatter_wlbbfl2 ..>26-Jun-2020 16:29 43K
[IMG]Diveplot 079.png 26-Jun-2020 16:29 209K
[IMG]Diveplot Details 079..>26-Jun-2020 16:29 123K
[IMG]Fluorometer_wlbbfl2 ..>26-Jun-2020 16:29 85K
[IMG]O2 079.png 26-Jun-2020 16:29 123K
[IMG]Path through water 0..>26-Jun-2020 16:29 121K
[IMG]Pitch 079.png 26-Jun-2020 16:29 79K
[IMG]Roll 079.png 26-Jun-2020 16:29 105K
[IMG]Roll Rate 079.png 26-Jun-2020 16:29 101K
[IMG]Temp & Salinity 079.png26-Jun-2020 16:29 76K
[IMG]T vs. S 079.png 26-Jun-2020 16:29 73K
[IMG]VBD 079.png 26-Jun-2020 16:29 118K
[IMG]Vertical Velocities ..>26-Jun-2020 16:29 130K
[IMG]Backscatter_wlbbfl2 ..>26-Jun-2020 21:25 41K
[IMG]Diveplot 080.png 26-Jun-2020 21:25 207K
[IMG]Diveplot Details 080..>26-Jun-2020 21:25 126K
[IMG]Fluorometer_wlbbfl2 ..>26-Jun-2020 21:25 84K
[IMG]O2 080.png 26-Jun-2020 21:25 125K
[IMG]Path through water 0..>26-Jun-2020 21:25 123K
[IMG]Pitch 080.png 26-Jun-2020 21:25 78K
[IMG]Roll 080.png 26-Jun-2020 21:25 102K
[IMG]Roll Rate 080.png 26-Jun-2020 21:25 101K
[IMG]Temp & Salinity 080.png26-Jun-2020 21:25 78K
[IMG]T vs. S 080.png 26-Jun-2020 21:25 78K
[IMG]VBD 080.png 26-Jun-2020 21:25 123K
[IMG]Vertical Velocities ..>26-Jun-2020 21:25 130K
[IMG]Backscatter_wlbbfl2 ..>26-Jun-2020 21:34 38K
[IMG]Diveplot 081.png 26-Jun-2020 21:34 196K
[IMG]Diveplot Details 081..>26-Jun-2020 21:34 122K
[IMG]Fluorometer_wlbbfl2 ..>26-Jun-2020 21:34 85K
[IMG]O2 081.png 26-Jun-2020 21:34 99K
[IMG]Path through water 0..>26-Jun-2020 21:34 122K
[IMG]Pitch 081.png 26-Jun-2020 21:34 79K
[IMG]Roll 081.png 26-Jun-2020 21:34 101K
[IMG]Roll Rate 081.png 26-Jun-2020 21:34 102K
[IMG]Temp & Salinity 081.png26-Jun-2020 21:34 69K
[IMG]T vs. S 081.png 26-Jun-2020 21:34 81K
[IMG]VBD 081.png 26-Jun-2020 21:34 124K
[IMG]Vertical Velocities ..>26-Jun-2020 21:34 108K
[IMG]Backscatter_wlbbfl2 ..>27-Jun-2020 00:30 40K
[IMG]Diveplot 082.png 27-Jun-2020 00:30 205K
[IMG]Diveplot Details 082..>27-Jun-2020 00:30 125K
[IMG]Fluorometer_wlbbfl2 ..>27-Jun-2020 00:30 85K
[IMG]O2 082.png 27-Jun-2020 00:30 92K
[IMG]Path through water 0..>27-Jun-2020 00:30 119K
[IMG]Pitch 082.png 27-Jun-2020 00:30 85K
[IMG]Roll 082.png 27-Jun-2020 00:30 103K
[IMG]Roll Rate 082.png 27-Jun-2020 00:30 102K
[IMG]Temp & Salinity 082.png27-Jun-2020 00:30 67K
[IMG]T vs. S 082.png 27-Jun-2020 00:30 73K
[IMG]VBD 082.png 27-Jun-2020 00:30 119K
[IMG]Vertical Velocities ..>27-Jun-2020 00:30 99K
[IMG]Backscatter_wlbbfl2 ..>27-Jun-2020 03:20 38K
[IMG]Diveplot 083.png 27-Jun-2020 03:20 184K
[IMG]Diveplot Details 083..>27-Jun-2020 03:20 118K
[IMG]Fluorometer_wlbbfl2 ..>27-Jun-2020 03:20 89K
[IMG]O2 083.png 27-Jun-2020 03:20 98K
[IMG]Path through water 0..>27-Jun-2020 03:20 123K
[IMG]Pitch 083.png 27-Jun-2020 03:20 82K
[IMG]Roll 083.png 27-Jun-2020 03:20 103K
[IMG]Roll Rate 083.png 27-Jun-2020 03:20 103K
[IMG]Temp & Salinity 083.png27-Jun-2020 03:20 71K
[IMG]T vs. S 083.png 27-Jun-2020 03:20 78K
[IMG]VBD 083.png 27-Jun-2020 03:20 126K
[IMG]Vertical Velocities ..>27-Jun-2020 03:20 104K
[IMG]Backscatter_wlbbfl2 ..>27-Jun-2020 06:11 39K
[IMG]Diveplot 084.png 27-Jun-2020 06:11 188K
[IMG]Diveplot Details 084..>27-Jun-2020 06:11 120K
[IMG]Fluorometer_wlbbfl2 ..>27-Jun-2020 06:11 87K
[IMG]O2 084.png 27-Jun-2020 06:11 98K
[IMG]Path through water 0..>27-Jun-2020 06:11 133K
[IMG]Pitch 084.png 27-Jun-2020 06:11 85K
[IMG]Roll 084.png 27-Jun-2020 06:11 103K
[IMG]Roll Rate 084.png 27-Jun-2020 06:11 106K
[IMG]Temp & Salinity 084.png27-Jun-2020 06:11 70K
[IMG]T vs. S 084.png 27-Jun-2020 06:11 78K
[IMG]VBD 084.png 27-Jun-2020 06:11 122K
[IMG]Vertical Velocities ..>27-Jun-2020 06:11 103K
[IMG]Backscatter_wlbbfl2 ..>27-Jun-2020 08:54 38K
[IMG]Diveplot 085.png 27-Jun-2020 08:54 192K
[IMG]Diveplot Details 085..>27-Jun-2020 08:54 121K
[IMG]Fluorometer_wlbbfl2 ..>27-Jun-2020 08:54 89K
[IMG]O2 085.png 27-Jun-2020 08:54 96K
[IMG]Path through water 0..>27-Jun-2020 08:54 128K
[IMG]Pitch 085.png 27-Jun-2020 08:54 83K
[IMG]Roll 085.png 27-Jun-2020 08:54 103K
[IMG]Roll Rate 085.png 27-Jun-2020 08:54 105K
[IMG]Temp & Salinity 085.png27-Jun-2020 08:54 69K
[IMG]T vs. S 085.png 27-Jun-2020 08:54 77K
[IMG]VBD 085.png 27-Jun-2020 08:54 119K
[IMG]Vertical Velocities ..>27-Jun-2020 08:54 108K
[IMG]Backscatter_wlbbfl2 ..>27-Jun-2020 11:43 38K
[IMG]Diveplot 086.png 27-Jun-2020 11:43 202K
[IMG]Diveplot Details 086..>27-Jun-2020 11:43 124K
[IMG]Fluorometer_wlbbfl2 ..>27-Jun-2020 11:43 92K
[IMG]O2 086.png 27-Jun-2020 11:43 97K
[IMG]Path through water 0..>27-Jun-2020 11:43 133K
[IMG]Pitch 086.png 27-Jun-2020 11:43 85K
[IMG]Roll 086.png 27-Jun-2020 11:43 101K
[IMG]Roll Rate 086.png 27-Jun-2020 11:43 103K
[IMG]Temp & Salinity 086.png27-Jun-2020 11:43 72K
[IMG]T vs. S 086.png 27-Jun-2020 11:43 77K
[IMG]VBD 086.png 27-Jun-2020 11:43 124K
[IMG]Vertical Velocities ..>27-Jun-2020 11:43 108K
[IMG]Backscatter_wlbbfl2 ..>27-Jun-2020 14:29 38K
[IMG]Diveplot 087.png 27-Jun-2020 14:29 198K
[IMG]Diveplot Details 087..>27-Jun-2020 14:29 123K
[IMG]Fluorometer_wlbbfl2 ..>27-Jun-2020 14:29 88K
[IMG]O2 087.png 27-Jun-2020 14:29 97K
[IMG]Path through water 0..>27-Jun-2020 14:29 135K
[IMG]Pitch 087.png 27-Jun-2020 14:29 82K
[IMG]Roll 087.png 27-Jun-2020 14:29 105K
[IMG]Roll Rate 087.png 27-Jun-2020 14:29 102K
[IMG]Temp & Salinity 087.png27-Jun-2020 14:29 72K
[IMG]T vs. S 087.png 27-Jun-2020 14:29 76K
[IMG]VBD 087.png 27-Jun-2020 14:29 124K
[IMG]Vertical Velocities ..>27-Jun-2020 14:29 107K
[IMG]Backscatter_wlbbfl2 ..>27-Jun-2020 17:18 38K
[IMG]Diveplot 088.png 27-Jun-2020 17:18 198K
[IMG]Diveplot Details 088..>27-Jun-2020 17:18 123K
[IMG]Fluorometer_wlbbfl2 ..>27-Jun-2020 17:18 91K
[IMG]O2 088.png 27-Jun-2020 17:18 96K
[IMG]Path through water 0..>27-Jun-2020 17:18 131K
[IMG]Pitch 088.png 27-Jun-2020 17:18 79K
[IMG]Roll 088.png 27-Jun-2020 17:18 101K
[IMG]Roll Rate 088.png 27-Jun-2020 17:18 104K
[IMG]Temp & Salinity 088.png27-Jun-2020 17:18 70K
[IMG]T vs. S 088.png 27-Jun-2020 17:18 78K
[IMG]VBD 088.png 27-Jun-2020 17:18 125K
[IMG]Vertical Velocities ..>27-Jun-2020 17:18 102K
[IMG]Backscatter_wlbbfl2 ..>27-Jun-2020 19:41 39K
[IMG]Diveplot 089.png 27-Jun-2020 19:41 187K
[IMG]Diveplot Details 089..>27-Jun-2020 19:41 120K
[IMG]Fluorometer_wlbbfl2 ..>27-Jun-2020 19:41 89K
[IMG]O2 089.png 27-Jun-2020 19:41 97K
[IMG]Path through water 0..>27-Jun-2020 19:41 136K
[IMG]Pitch 089.png 27-Jun-2020 19:41 83K
[IMG]Roll 089.png 27-Jun-2020 19:41 104K
[IMG]Roll Rate 089.png 27-Jun-2020 19:41 103K
[IMG]Temp & Salinity 089.png27-Jun-2020 19:41 69K
[IMG]T vs. S 089.png 27-Jun-2020 19:41 84K
[IMG]VBD 089.png 27-Jun-2020 19:41 125K
[IMG]Vertical Velocities ..>27-Jun-2020 19:41 95K
[IMG]Backscatter_wlbbfl2 ..>27-Jun-2020 22:33 38K
[IMG]Diveplot 090.png 27-Jun-2020 22:33 185K
[IMG]Diveplot Details 090..>27-Jun-2020 22:33 119K
[IMG]Fluorometer_wlbbfl2 ..>27-Jun-2020 22:33 89K
[IMG]O2 090.png 27-Jun-2020 22:33 95K
[IMG]Path through water 0..>27-Jun-2020 22:33 139K
[IMG]Pitch 090.png 27-Jun-2020 22:33 83K
[IMG]Roll 090.png 27-Jun-2020 22:33 103K
[IMG]Roll Rate 090.png 27-Jun-2020 22:33 102K
[IMG]Temp & Salinity 090.png27-Jun-2020 22:33 70K
[IMG]T vs. S 090.png 27-Jun-2020 22:33 85K
[IMG]VBD 090.png 27-Jun-2020 22:33 124K
[IMG]Vertical Velocities ..>27-Jun-2020 22:33 106K
[IMG]Temperature_tail.png 28-Jun-2020 01:27 32K
[IMG]Backscatter_wlbbfl2 ..>28-Jun-2020 01:30 38K
[IMG]Diveplot 091.png 28-Jun-2020 01:30 190K
[IMG]Diveplot Details 091..>28-Jun-2020 01:30 120K
[IMG]Fluorometer_wlbbfl2 ..>28-Jun-2020 01:30 87K
[IMG]O2 091.png 28-Jun-2020 01:30 97K
[IMG]Path through water 0..>28-Jun-2020 01:30 124K
[IMG]Pitch 091.png 28-Jun-2020 01:30 81K
[IMG]Roll 091.png 28-Jun-2020 01:30 104K
[IMG]Roll Rate 091.png 28-Jun-2020 01:30 103K
[IMG]Temp & Salinity 091.png28-Jun-2020 01:30 70K
[IMG]T vs. S 091.png 28-Jun-2020 01:30 83K
[IMG]VBD 091.png 28-Jun-2020 01:30 125K
[IMG]Vertical Velocities ..>28-Jun-2020 01:30 102K
[IMG]Backscatter_wlbbfl2 ..>28-Jun-2020 04:22 38K
[IMG]Diveplot 092.png 28-Jun-2020 04:22 192K
[IMG]Diveplot Details 092..>28-Jun-2020 04:22 122K
[IMG]Fluorometer_wlbbfl2 ..>28-Jun-2020 04:22 90K
[IMG]O2 092.png 28-Jun-2020 04:22 99K
[IMG]Path through water 0..>28-Jun-2020 04:22 127K
[IMG]Pitch 092.png 28-Jun-2020 04:22 81K
[IMG]Roll 092.png 28-Jun-2020 04:22 101K
[IMG]Roll Rate 092.png 28-Jun-2020 04:22 100K
[IMG]Temp & Salinity 092.png28-Jun-2020 04:22 69K
[IMG]T vs. S 092.png 28-Jun-2020 04:22 81K
[IMG]VBD 092.png 28-Jun-2020 04:22 124K
[IMG]Vertical Velocities ..>28-Jun-2020 04:22 104K
[IMG]Backscatter_wlbbfl2 ..>28-Jun-2020 07:19 38K
[IMG]Diveplot 093.png 28-Jun-2020 07:19 182K
[IMG]Diveplot Details 093..>28-Jun-2020 07:19 119K
[IMG]Fluorometer_wlbbfl2 ..>28-Jun-2020 07:19 92K
[IMG]O2 093.png 28-Jun-2020 07:19 97K
[IMG]Path through water 0..>28-Jun-2020 07:19 121K
[IMG]Pitch 093.png 28-Jun-2020 07:19 81K
[IMG]Roll 093.png 28-Jun-2020 07:19 101K
[IMG]Roll Rate 093.png 28-Jun-2020 07:19 102K
[IMG]Temp & Salinity 093.png28-Jun-2020 07:19 69K
[IMG]T vs. S 093.png 28-Jun-2020 07:19 75K
[IMG]VBD 093.png 28-Jun-2020 07:19 123K
[IMG]Vertical Velocities ..>28-Jun-2020 07:19 102K
[IMG]Backscatter_wlbbfl2 ..>28-Jun-2020 10:11 37K
[IMG]Diveplot 094.png 28-Jun-2020 10:11 185K
[IMG]Diveplot Details 094..>28-Jun-2020 10:11 120K
[IMG]Fluorometer_wlbbfl2 ..>28-Jun-2020 10:11 90K
[IMG]O2 094.png 28-Jun-2020 10:11 98K
[IMG]Path through water 0..>28-Jun-2020 10:11 123K
[IMG]Pitch 094.png 28-Jun-2020 10:11 82K
[IMG]Roll 094.png 28-Jun-2020 10:11 99K
[IMG]Roll Rate 094.png 28-Jun-2020 10:11 101K
[IMG]Temp & Salinity 094.png28-Jun-2020 10:11 75K
[IMG]T vs. S 094.png 28-Jun-2020 10:11 85K
[IMG]VBD 094.png 28-Jun-2020 10:11 124K
[IMG]Vertical Velocities ..>28-Jun-2020 10:11 110K
[IMG]Backscatter_wlbbfl2 ..>28-Jun-2020 13:00 38K
[IMG]Diveplot 095.png 28-Jun-2020 13:00 190K
[IMG]Diveplot Details 095..>28-Jun-2020 13:00 121K
[IMG]Fluorometer_wlbbfl2 ..>28-Jun-2020 13:00 91K
[IMG]O2 095.png 28-Jun-2020 13:00 86K
[IMG]Path through water 0..>28-Jun-2020 13:00 133K
[IMG]Pitch 095.png 28-Jun-2020 13:00 81K
[IMG]Roll 095.png 28-Jun-2020 13:00 104K
[IMG]Roll Rate 095.png 28-Jun-2020 13:00 103K
[IMG]Temp & Salinity 095.png28-Jun-2020 13:00 71K
[IMG]T vs. S 095.png 28-Jun-2020 13:00 83K
[IMG]VBD 095.png 28-Jun-2020 13:00 123K
[IMG]Vertical Velocities ..>28-Jun-2020 13:00 103K
[IMG]Backscatter_wlbbfl2 ..>28-Jun-2020 15:22 38K
[IMG]Diveplot 096.png 28-Jun-2020 15:22 189K
[IMG]Diveplot Details 096..>28-Jun-2020 15:22 119K
[IMG]Fluorometer_wlbbfl2 ..>28-Jun-2020 15:22 89K
[IMG]O2 096.png 28-Jun-2020 15:22 91K
[IMG]Path through water 0..>28-Jun-2020 15:22 139K
[IMG]Pitch 096.png 28-Jun-2020 15:22 82K
[IMG]Roll 096.png 28-Jun-2020 15:22 104K
[IMG]Roll Rate 096.png 28-Jun-2020 15:22 103K
[IMG]Temp & Salinity 096.png28-Jun-2020 15:22 69K
[IMG]T vs. S 096.png 28-Jun-2020 15:22 83K
[IMG]VBD 096.png 28-Jun-2020 15:22 125K
[IMG]Vertical Velocities ..>28-Jun-2020 15:22 101K
[IMG]Backscatter_wlbbfl2 ..>28-Jun-2020 18:21 38K
[IMG]Diveplot 097.png 28-Jun-2020 18:21 187K
[IMG]Diveplot Details 097..>28-Jun-2020 18:21 118K
[IMG]Fluorometer_wlbbfl2 ..>28-Jun-2020 18:21 93K
[IMG]O2 097.png 28-Jun-2020 18:21 95K
[IMG]Path through water 0..>28-Jun-2020 18:21 129K
[IMG]Pitch 097.png 28-Jun-2020 18:21 82K
[IMG]Roll 097.png 28-Jun-2020 18:21 97K
[IMG]Roll Rate 097.png 28-Jun-2020 18:21 103K
[IMG]Temp & Salinity 097.png28-Jun-2020 18:21 69K
[IMG]T vs. S 097.png 28-Jun-2020 18:21 84K
[IMG]VBD 097.png 28-Jun-2020 18:21 125K
[IMG]Vertical Velocities ..>28-Jun-2020 18:21 102K
[IMG]Backscatter_wlbbfl2 ..>28-Jun-2020 21:05 38K
[IMG]Diveplot 098.png 28-Jun-2020 21:05 188K
[IMG]Diveplot Details 098..>28-Jun-2020 21:05 120K
[IMG]Fluorometer_wlbbfl2 ..>28-Jun-2020 21:05 93K
[IMG]O2 098.png 28-Jun-2020 21:05 95K
[IMG]Path through water 0..>28-Jun-2020 21:05 118K
[IMG]Pitch 098.png 28-Jun-2020 21:05 82K
[IMG]Roll 098.png 28-Jun-2020 21:05 100K
[IMG]Roll Rate 098.png 28-Jun-2020 21:05 104K
[IMG]Temp & Salinity 098.png28-Jun-2020 21:05 72K
[IMG]T vs. S 098.png 28-Jun-2020 21:05 83K
[IMG]VBD 098.png 28-Jun-2020 21:05 124K
[IMG]Vertical Velocities ..>28-Jun-2020 21:05 100K
[IMG]Diveplot 099.png 29-Jun-2020 02:33 206K
[IMG]Path through water 0..>29-Jun-2020 02:33 129K
[IMG]Backscatter_wlbbfl2 ..>29-Jun-2020 02:33 39K
[IMG]Diveplot Details 099..>29-Jun-2020 02:33 125K
[IMG]Fluorometer_wlbbfl2 ..>29-Jun-2020 02:33 89K
[IMG]O2 099.png 29-Jun-2020 02:33 98K
[IMG]Pitch 099.png 29-Jun-2020 02:33 84K
[IMG]Roll 099.png 29-Jun-2020 02:33 105K
[IMG]Roll Rate 099.png 29-Jun-2020 02:33 107K
[IMG]Temp & Salinity 099.png29-Jun-2020 02:33 73K
[IMG]T vs. S 099.png 29-Jun-2020 02:33 86K
[IMG]VBD 099.png 29-Jun-2020 02:33 126K
[IMG]Vertical Velocities ..>29-Jun-2020 02:33 106K
[IMG]Backscatter_wlbbfl2 ..>29-Jun-2020 02:43 38K
[IMG]Diveplot 100.png 29-Jun-2020 02:43 205K
[IMG]Diveplot Details 100..>29-Jun-2020 02:43 125K
[IMG]Fluorometer_wlbbfl2 ..>29-Jun-2020 02:43 89K
[IMG]O2 100.png 29-Jun-2020 02:43 98K
[IMG]Path through water 1..>29-Jun-2020 02:43 128K
[IMG]Pitch 100.png 29-Jun-2020 02:43 82K
[IMG]Roll 100.png 29-Jun-2020 02:43 102K
[IMG]Roll Rate 100.png 29-Jun-2020 02:43 106K
[IMG]Temp & Salinity 100.png29-Jun-2020 02:43 70K
[IMG]T vs. S 100.png 29-Jun-2020 02:43 83K
[IMG]VBD 100.png 29-Jun-2020 02:43 124K
[IMG]Vertical Velocities ..>29-Jun-2020 02:43 105K
[IMG]Backscatter_wlbbfl2 ..>29-Jun-2020 05:26 38K
[IMG]Diveplot 101.png 29-Jun-2020 05:26 189K
[IMG]Diveplot Details 101..>29-Jun-2020 05:26 123K
[IMG]Fluorometer_wlbbfl2 ..>29-Jun-2020 05:26 88K
[IMG]O2 101.png 29-Jun-2020 05:26 80K
[IMG]Path through water 1..>29-Jun-2020 05:26 121K
[IMG]Pitch 101.png 29-Jun-2020 05:26 83K
[IMG]Roll 101.png 29-Jun-2020 05:26 103K
[IMG]Roll Rate 101.png 29-Jun-2020 05:26 105K
[IMG]Temp & Salinity 101.png29-Jun-2020 05:26 64K
[IMG]T vs. S 101.png 29-Jun-2020 05:26 74K
[IMG]VBD 101.png 29-Jun-2020 05:26 112K
[IMG]Vertical Velocities ..>29-Jun-2020 05:26 95K
[IMG]Backscatter_wlbbfl2 ..>29-Jun-2020 10:32 38K
[IMG]Diveplot 103.png 29-Jun-2020 10:32 201K
[IMG]Diveplot Details 103..>29-Jun-2020 10:32 125K
[IMG]Fluorometer_wlbbfl2 ..>29-Jun-2020 10:32 85K
[IMG]O2 103.png 29-Jun-2020 10:32 98K
[IMG]Path through water 1..>29-Jun-2020 10:32 116K
[IMG]Pitch 103.png 29-Jun-2020 10:32 80K
[IMG]Roll 103.png 29-Jun-2020 10:32 100K
[IMG]Roll Rate 103.png 29-Jun-2020 10:32 107K
[IMG]Temp & Salinity 103.png29-Jun-2020 10:32 69K
[IMG]T vs. S 103.png 29-Jun-2020 10:32 83K
[IMG]VBD 103.png 29-Jun-2020 10:32 125K
[IMG]Vertical Velocities ..>29-Jun-2020 10:32 109K
[IMG]Backscatter_wlbbfl2 ..>29-Jun-2020 13:22 38K
[IMG]Diveplot 104.png 29-Jun-2020 13:22 189K
[IMG]Diveplot Details 104..>29-Jun-2020 13:22 121K
[IMG]Fluorometer_wlbbfl2 ..>29-Jun-2020 13:22 84K
[IMG]O2 104.png 29-Jun-2020 13:22 91K
[IMG]Path through water 1..>29-Jun-2020 13:22 111K
[IMG]Pitch 104.png 29-Jun-2020 13:22 82K
[IMG]Roll 104.png 29-Jun-2020 13:22 102K
[IMG]Roll Rate 104.png 29-Jun-2020 13:22 102K
[IMG]Temp & Salinity 104.png29-Jun-2020 13:22 69K
[IMG]T vs. S 104.png 29-Jun-2020 13:22 83K
[IMG]VBD 104.png 29-Jun-2020 13:22 124K
[IMG]Vertical Velocities ..>29-Jun-2020 13:22 104K
[IMG]Backscatter_wlbbfl2 ..>29-Jun-2020 16:08 38K
[IMG]Diveplot 105.png 29-Jun-2020 16:08 191K
[IMG]Diveplot Details 105..>29-Jun-2020 16:08 121K
[IMG]Fluorometer_wlbbfl2 ..>29-Jun-2020 16:08 90K
[IMG]O2 105.png 29-Jun-2020 16:08 99K
[IMG]Path through water 1..>29-Jun-2020 16:08 124K
[IMG]Pitch 105.png 29-Jun-2020 16:08 80K
[IMG]Roll 105.png 29-Jun-2020 16:08 104K
[IMG]Roll Rate 105.png 29-Jun-2020 16:08 104K
[IMG]Temp & Salinity 105.png29-Jun-2020 16:08 73K
[IMG]T vs. S 105.png 29-Jun-2020 16:08 85K
[IMG]VBD 105.png 29-Jun-2020 16:08 125K
[IMG]Vertical Velocities ..>29-Jun-2020 16:08 101K
[IMG]Backscatter_wlbbfl2 ..>29-Jun-2020 18:47 38K
[IMG]Diveplot 106.png 29-Jun-2020 18:47 200K
[IMG]Diveplot Details 106..>29-Jun-2020 18:47 123K
[IMG]Fluorometer_wlbbfl2 ..>29-Jun-2020 18:47 90K
[IMG]O2 106.png 29-Jun-2020 18:47 98K
[IMG]Path through water 1..>29-Jun-2020 18:47 136K
[IMG]Pitch 106.png 29-Jun-2020 18:47 82K
[IMG]Roll 106.png 29-Jun-2020 18:47 104K
[IMG]Roll Rate 106.png 29-Jun-2020 18:47 107K
[IMG]Temp & Salinity 106.png29-Jun-2020 18:47 70K
[IMG]T vs. S 106.png 29-Jun-2020 18:47 86K
[IMG]VBD 106.png 29-Jun-2020 18:47 126K
[IMG]Vertical Velocities ..>29-Jun-2020 18:47 96K
[IMG]Backscatter_wlbbfl2 ..>29-Jun-2020 21:44 38K
[IMG]Diveplot 107.png 29-Jun-2020 21:44 190K
[IMG]Diveplot Details 107..>29-Jun-2020 21:44 120K
[IMG]Fluorometer_wlbbfl2 ..>29-Jun-2020 21:44 93K
[IMG]O2 107.png 29-Jun-2020 21:44 98K
[IMG]Path through water 1..>29-Jun-2020 21:44 132K
[IMG]Pitch 107.png 29-Jun-2020 21:44 82K
[IMG]Roll 107.png 29-Jun-2020 21:44 102K
[IMG]Roll Rate 107.png 29-Jun-2020 21:44 101K
[IMG]Temp & Salinity 107.png29-Jun-2020 21:44 69K
[IMG]T vs. S 107.png 29-Jun-2020 21:44 86K
[IMG]VBD 107.png 29-Jun-2020 21:44 124K
[IMG]Vertical Velocities ..>29-Jun-2020 21:44 92K
[IMG]Backscatter_wlbbfl2 ..>30-Jun-2020 00:29 38K
[IMG]Diveplot 108.png 30-Jun-2020 00:29 190K
[IMG]Diveplot Details 108..>30-Jun-2020 00:29 120K
[IMG]Fluorometer_wlbbfl2 ..>30-Jun-2020 00:29 90K
[IMG]O2 108.png 30-Jun-2020 00:29 97K
[IMG]Path through water 1..>30-Jun-2020 00:29 121K
[IMG]Pitch 108.png 30-Jun-2020 00:29 81K
[IMG]Roll 108.png 30-Jun-2020 00:29 101K
[IMG]Roll Rate 108.png 30-Jun-2020 00:29 102K
[IMG]Temp & Salinity 108.png30-Jun-2020 00:29 72K
[IMG]T vs. S 108.png 30-Jun-2020 00:29 85K
[IMG]VBD 108.png 30-Jun-2020 00:29 126K
[IMG]Vertical Velocities ..>30-Jun-2020 00:29 104K
[IMG]Backscatter_wlbbfl2 ..>30-Jun-2020 03:22 38K
[IMG]Diveplot 109.png 30-Jun-2020 03:22 196K
[IMG]Diveplot Details 109..>30-Jun-2020 03:22 122K
[IMG]Fluorometer_wlbbfl2 ..>30-Jun-2020 03:22 91K
[IMG]O2 109.png 30-Jun-2020 03:22 100K
[IMG]Path through water 1..>30-Jun-2020 03:22 129K
[IMG]Pitch 109.png 30-Jun-2020 03:22 79K
[IMG]Roll 109.png 30-Jun-2020 03:22 102K
[IMG]Roll Rate 109.png 30-Jun-2020 03:22 103K
[IMG]Temp & Salinity 109.png30-Jun-2020 03:22 68K
[IMG]T vs. S 109.png 30-Jun-2020 03:22 84K
[IMG]VBD 109.png 30-Jun-2020 03:22 125K
[IMG]Vertical Velocities ..>30-Jun-2020 03:22 101K
[IMG]Backscatter_wlbbfl2 ..>30-Jun-2020 08:38 39K
[IMG]Diveplot 110.png 30-Jun-2020 08:38 191K
[IMG]Diveplot Details 110..>30-Jun-2020 08:38 121K
[IMG]Fluorometer_wlbbfl2 ..>30-Jun-2020 08:38 89K
[IMG]O2 110.png 30-Jun-2020 08:38 97K
[IMG]Path through water 1..>30-Jun-2020 08:38 116K
[IMG]Pitch 110.png 30-Jun-2020 08:38 79K
[IMG]Roll 110.png 30-Jun-2020 08:38 101K
[IMG]Roll Rate 110.png 30-Jun-2020 08:38 105K
[IMG]Temp & Salinity 110.png30-Jun-2020 08:38 72K
[IMG]T vs. S 110.png 30-Jun-2020 08:38 87K
[IMG]VBD 110.png 30-Jun-2020 08:38 125K
[IMG]Vertical Velocities ..>30-Jun-2020 08:38 105K
[IMG]Backscatter_wlbbfl2 ..>30-Jun-2020 13:47 42K
[IMG]Diveplot 111.png 30-Jun-2020 13:47 202K
[IMG]Diveplot Details 111..>30-Jun-2020 13:47 124K
[IMG]Fluorometer_wlbbfl2 ..>30-Jun-2020 13:47 89K
[IMG]O2 111.png 30-Jun-2020 13:47 122K
[IMG]Path through water 1..>30-Jun-2020 13:47 116K
[IMG]Pitch 111.png 30-Jun-2020 13:47 78K
[IMG]Roll 111.png 30-Jun-2020 13:47 102K
[IMG]Roll Rate 111.png 30-Jun-2020 13:47 103K
[IMG]Temp & Salinity 111.png30-Jun-2020 13:47 80K
[IMG]T vs. S 111.png 30-Jun-2020 13:47 84K
[IMG]VBD 111.png 30-Jun-2020 13:47 124K
[IMG]Vertical Velocities ..>30-Jun-2020 13:47 126K
[IMG]Backscatter_wlbbfl2 ..>30-Jun-2020 19:04 42K
[IMG]Diveplot 112.png 30-Jun-2020 19:04 195K
[IMG]Diveplot Details 112..>30-Jun-2020 19:04 121K
[IMG]Fluorometer_wlbbfl2 ..>30-Jun-2020 19:04 85K
[IMG]O2 112.png 30-Jun-2020 19:04 122K
[IMG]Path through water 1..>30-Jun-2020 19:04 112K
[IMG]Pitch 112.png 30-Jun-2020 19:04 79K
[IMG]Roll 112.png 30-Jun-2020 19:04 99K
[IMG]Roll Rate 112.png 30-Jun-2020 19:04 100K
[IMG]Temp & Salinity 112.png30-Jun-2020 19:04 81K
[IMG]T vs. S 112.png 30-Jun-2020 19:04 85K
[IMG]VBD 112.png 30-Jun-2020 19:04 125K
[IMG]Vertical Velocities ..>30-Jun-2020 19:04 121K
[IMG]Backscatter_wlbbfl2 ..>01-Jul-2020 00:19 42K
[IMG]Diveplot 113.png 01-Jul-2020 00:19 203K
[IMG]Diveplot Details 113..>01-Jul-2020 00:19 124K
[IMG]Fluorometer_wlbbfl2 ..>01-Jul-2020 00:19 85K
[IMG]O2 113.png 01-Jul-2020 00:19 125K
[IMG]Path through water 1..>01-Jul-2020 00:19 115K
[IMG]Pitch 113.png 01-Jul-2020 00:19 81K
[IMG]Roll 113.png 01-Jul-2020 00:19 101K
[IMG]Roll Rate 113.png 01-Jul-2020 00:19 103K
[IMG]Temp & Salinity 113.png01-Jul-2020 00:19 79K
[IMG]T vs. S 113.png 01-Jul-2020 00:19 80K
[IMG]VBD 113.png 01-Jul-2020 00:19 123K
[IMG]Vertical Velocities ..>01-Jul-2020 00:19 120K
[IMG]Backscatter_wlbbfl2 ..>01-Jul-2020 05:37 42K
[IMG]Diveplot 114.png 01-Jul-2020 05:37 201K
[IMG]Diveplot Details 114..>01-Jul-2020 05:37 124K
[IMG]Fluorometer_wlbbfl2 ..>01-Jul-2020 05:37 82K
[IMG]O2 114.png 01-Jul-2020 05:37 125K
[IMG]Path through water 1..>01-Jul-2020 05:37 111K
[IMG]Pitch 114.png 01-Jul-2020 05:37 81K
[IMG]Roll 114.png 01-Jul-2020 05:37 100K
[IMG]Roll Rate 114.png 01-Jul-2020 05:37 104K
[IMG]Temp & Salinity 114.png01-Jul-2020 05:37 76K
[IMG]T vs. S 114.png 01-Jul-2020 05:37 79K
[IMG]VBD 114.png 01-Jul-2020 05:37 138K
[IMG]Vertical Velocities ..>01-Jul-2020 05:37 123K
[IMG]Backscatter_wlbbfl2 ..>01-Jul-2020 10:56 42K
[IMG]Diveplot 115.png 01-Jul-2020 10:56 195K
[IMG]Diveplot Details 115..>01-Jul-2020 10:56 123K
[IMG]Fluorometer_wlbbfl2 ..>01-Jul-2020 10:56 84K
[IMG]O2 115.png 01-Jul-2020 10:56 101K
[IMG]Path through water 1..>01-Jul-2020 10:56 108K
[IMG]Pitch 115.png 01-Jul-2020 10:56 80K
[IMG]Roll 115.png 01-Jul-2020 10:56 101K
[IMG]Roll Rate 115.png 01-Jul-2020 10:56 103K
[IMG]Temp & Salinity 115.png01-Jul-2020 10:56 70K
[IMG]T vs. S 115.png 01-Jul-2020 10:56 70K
[IMG]VBD 115.png 01-Jul-2020 10:56 121K
[IMG]Vertical Velocities ..>01-Jul-2020 10:56 111K
[IMG]Backscatter_wlbbfl2 ..>01-Jul-2020 16:13 41K
[IMG]Diveplot 116.png 01-Jul-2020 16:13 205K
[IMG]Diveplot Details 116..>01-Jul-2020 16:13 125K
[IMG]Fluorometer_wlbbfl2 ..>01-Jul-2020 16:13 82K
[IMG]O2 116.png 01-Jul-2020 16:13 121K
[IMG]Path through water 1..>01-Jul-2020 16:13 117K
[IMG]Pitch 116.png 01-Jul-2020 16:13 80K
[IMG]Roll 116.png 01-Jul-2020 16:13 100K
[IMG]Roll Rate 116.png 01-Jul-2020 16:13 102K
[IMG]Temp & Salinity 116.png01-Jul-2020 16:13 71K
[IMG]T vs. S 116.png 01-Jul-2020 16:13 73K
[IMG]VBD 116.png 01-Jul-2020 16:13 126K
[IMG]Vertical Velocities ..>01-Jul-2020 16:13 127K
[IMG]Backscatter_wlbbfl2 ..>01-Jul-2020 20:19 42K
[IMG]Diveplot 117.png 01-Jul-2020 20:19 207K
[IMG]Diveplot Details 117..>01-Jul-2020 20:19 126K
[IMG]Fluorometer_wlbbfl2 ..>01-Jul-2020 20:19 84K
[IMG]O2 117.png 01-Jul-2020 20:19 97K
[IMG]Path through water 1..>01-Jul-2020 20:19 114K
[IMG]Pitch 117.png 01-Jul-2020 20:19 78K
[IMG]Roll 117.png 01-Jul-2020 20:19 99K
[IMG]Roll Rate 117.png 01-Jul-2020 20:19 102K
[IMG]Temp & Salinity 117.png01-Jul-2020 20:19 77K
[IMG]T vs. S 117.png 01-Jul-2020 20:19 78K
[IMG]VBD 117.png 01-Jul-2020 20:19 137K
[IMG]Vertical Velocities ..>01-Jul-2020 20:19 131K
[IMG]Backscatter_wlbbfl2 ..>02-Jul-2020 00:27 40K
[IMG]Diveplot 118.png 02-Jul-2020 00:27 203K
[IMG]Diveplot Details 118..>02-Jul-2020 00:27 130K
[IMG]Fluorometer_wlbbfl2 ..>02-Jul-2020 00:27 77K
[IMG]O2 118.png 02-Jul-2020 00:27 113K
[IMG]Path through water 1..>02-Jul-2020 00:27 103K
[IMG]Pitch 118.png 02-Jul-2020 00:27 80K
[IMG]Roll 118.png 02-Jul-2020 00:27 99K
[IMG]Roll Rate 118.png 02-Jul-2020 00:27 104K
[IMG]Temp & Salinity 118.png02-Jul-2020 00:27 70K
[IMG]T vs. S 118.png 02-Jul-2020 00:27 76K
[IMG]VBD 118.png 02-Jul-2020 00:27 136K
[IMG]Vertical Velocities ..>02-Jul-2020 00:27 116K
[IMG]Backscatter_wlbbfl2 ..>02-Jul-2020 04:25 40K
[IMG]Diveplot 119.png 02-Jul-2020 04:25 201K
[IMG]Diveplot Details 119..>02-Jul-2020 04:25 130K
[IMG]Fluorometer_wlbbfl2 ..>02-Jul-2020 04:25 80K
[IMG]O2 119.png 02-Jul-2020 04:25 109K
[IMG]Path through water 1..>02-Jul-2020 04:25 98K
[IMG]Pitch 119.png 02-Jul-2020 04:25 81K
[IMG]Roll 119.png 02-Jul-2020 04:25 101K
[IMG]Roll Rate 119.png 02-Jul-2020 04:25 101K
[IMG]Temp & Salinity 119.png02-Jul-2020 04:25 74K
[IMG]T vs. S 119.png 02-Jul-2020 04:25 83K
[IMG]VBD 119.png 02-Jul-2020 04:25 137K
[IMG]Vertical Velocities ..>02-Jul-2020 04:25 116K
[IMG]Diveplot 120.png 02-Jul-2020 08:08 193K
[IMG]Path through water 1..>02-Jul-2020 08:08 100K
[IMG]Pitch 120.png 02-Jul-2020 08:08 79K
[IMG]Roll 120.png 02-Jul-2020 08:08 103K
[IMG]Roll Rate 120.png 02-Jul-2020 08:08 102K
[IMG]Temp & Salinity 120.png02-Jul-2020 08:08 73K
[IMG]T vs. S 120.png 02-Jul-2020 08:08 78K
[IMG]VBD 120.png 02-Jul-2020 08:08 124K
[IMG]Vertical Velocities ..>02-Jul-2020 08:08 112K
[IMG]Backscatter_wlbbfl2 ..>02-Jul-2020 08:08 39K
[IMG]Diveplot Details 120..>02-Jul-2020 08:08 127K
[IMG]Fluorometer_wlbbfl2 ..>02-Jul-2020 08:08 83K
[IMG]O2 120.png 02-Jul-2020 08:08 111K
[IMG]Backscatter_wlbbfl2 ..>02-Jul-2020 10:47 39K
[IMG]Diveplot 121.png 02-Jul-2020 10:47 193K
[IMG]Diveplot Details 121..>02-Jul-2020 10:47 124K
[IMG]Fluorometer_wlbbfl2 ..>02-Jul-2020 10:47 84K
[IMG]O2 121.png 02-Jul-2020 10:47 106K
[IMG]Path through water 1..>02-Jul-2020 10:47 98K
[IMG]Pitch 121.png 02-Jul-2020 10:47 80K
[IMG]Roll 121.png 02-Jul-2020 10:47 102K
[IMG]Roll Rate 121.png 02-Jul-2020 10:47 99K
[IMG]Temp & Salinity 121.png02-Jul-2020 10:47 72K
[IMG]T vs. S 121.png 02-Jul-2020 10:47 77K
[IMG]VBD 121.png 02-Jul-2020 10:47 124K
[IMG]Vertical Velocities ..>02-Jul-2020 10:47 111K
[IMG]Backscatter_wlbbfl2 ..>02-Jul-2020 12:24 38K
[IMG]Diveplot 122.png 02-Jul-2020 12:24 196K
[IMG]Diveplot Details 122..>02-Jul-2020 12:24 121K
[IMG]Fluorometer_wlbbfl2 ..>02-Jul-2020 12:24 88K
[IMG]O2 122.png 02-Jul-2020 12:24 99K
[IMG]Path through water 1..>02-Jul-2020 12:24 111K
[IMG]Pitch 122.png 02-Jul-2020 12:24 83K
[IMG]Roll 122.png 02-Jul-2020 12:24 102K
[IMG]Roll Rate 122.png 02-Jul-2020 12:24 103K
[IMG]Temp & Salinity 122.png02-Jul-2020 12:24 67K
[IMG]T vs. S 122.png 02-Jul-2020 12:24 78K
[IMG]VBD 122.png 02-Jul-2020 12:24 124K
[IMG]Vertical Velocities ..>02-Jul-2020 12:24 104K
[IMG]Backscatter_wlbbfl2 ..>02-Jul-2020 13:42 43K
[IMG]Diveplot 123.png 02-Jul-2020 13:42 194K
[IMG]Diveplot Details 123..>02-Jul-2020 13:42 126K
[IMG]Fluorometer_wlbbfl2 ..>02-Jul-2020 13:42 90K
[IMG]O2 123.png 02-Jul-2020 13:42 96K
[IMG]Path through water 1..>02-Jul-2020 13:42 108K
[IMG]Pitch 123.png 02-Jul-2020 13:42 81K
[IMG]Roll 123.png 02-Jul-2020 13:42 100K
[IMG]Roll Rate 123.png 02-Jul-2020 13:42 103K
[IMG]Temp & Salinity 123.png02-Jul-2020 13:42 70K
[IMG]T vs. S 123.png 02-Jul-2020 13:42 77K
[IMG]VBD 123.png 02-Jul-2020 13:42 124K
[IMG]Vertical Velocities ..>02-Jul-2020 13:42 128K
[IMG]Diveplot 125.png 02-Jul-2020 14:27 157K
[IMG]Path through water 1..>02-Jul-2020 14:27 109K
[IMG]Pitch 125.png 02-Jul-2020 14:27 83K
[IMG]Vertical Velocities ..>02-Jul-2020 14:27 87K
[IMG]Backscatter_wlbbfl2 ..>02-Jul-2020 14:27 46K
[IMG]Backscatter_wlbbfl2 ..>02-Jul-2020 14:27 43K
[IMG]Diveplot 124.png 02-Jul-2020 14:27 196K
[IMG]Diveplot Details 124..>02-Jul-2020 14:27 126K
[IMG]Diveplot Details 125..>02-Jul-2020 14:27 122K
[IMG]Fluorometer_wlbbfl2 ..>02-Jul-2020 14:27 88K
[IMG]Fluorometer_wlbbfl2 ..>02-Jul-2020 14:27 86K
[IMG]O2 124.png 02-Jul-2020 14:27 89K
[IMG]O2 125.png 02-Jul-2020 14:27 71K
[IMG]Path through water 1..>02-Jul-2020 14:27 107K
[IMG]Pitch 124.png 02-Jul-2020 14:27 79K
[IMG]Roll 124.png 02-Jul-2020 14:27 98K
[IMG]Roll 125.png 02-Jul-2020 14:27 102K
[IMG]Roll Rate 124.png 02-Jul-2020 14:27 101K
[IMG]Roll Rate 125.png 02-Jul-2020 14:27 103K
[IMG]Temp & Salinity 124.png02-Jul-2020 14:27 73K
[IMG]Temp & Salinity 125.png02-Jul-2020 14:27 68K
[IMG]T vs. S 124.png 02-Jul-2020 14:27 78K
[IMG]T vs. S 125.png 02-Jul-2020 14:27 88K
[IMG]VBD 124.png 02-Jul-2020 14:27 125K
[IMG]VBD 125.png 02-Jul-2020 14:27 124K
[IMG]Vertical Velocities ..>02-Jul-2020 14:27 135K
[IMG]Convex_20.png 03-Jul-2020 16:35 101K
[IMG]Backscattering700_al..>29-Sep-2020 11:13 193K
[IMG]CDOM_all.png 29-Sep-2020 11:13 159K
[IMG]Density_all.png 29-Sep-2020 11:13 70K
[IMG]Fluorescence_all.png 29-Sep-2020 11:13 113K
[IMG]Oxygen_all.png 29-Sep-2020 11:13 112K
[IMG]Salinity_all.png 29-Sep-2020 11:13 96K
[IMG]Temperature_all.png 29-Sep-2020 11:13 51K
[IMG]CURR.png 29-Sep-2020 11:13 22K
[IMG]DEPTHo.png 29-Sep-2020 11:13 14K
[IMG]amp.png 29-Sep-2020 11:13 16K
[IMG]consumption.png 29-Sep-2020 11:13 13K
[IMG]distance.png 29-Sep-2020 11:13 8.7K
[IMG]humid.png 29-Sep-2020 11:13 15K
[IMG]int_press.png 29-Sep-2020 11:13 14K
[IMG]memory.png 29-Sep-2020 11:13 11K
[IMG]speed.png 29-Sep-2020 11:13 8.9K
[IMG]volt.png 29-Sep-2020 11:13 23K
[IMG]volt_zoom.png 29-Sep-2020 11:13 15K
[   ]Convex_20.kml 29-Sep-2020 11:13 183K

Apache/2.2.3 (Red Hat) Server at nettuno.ogs.trieste.it Port 80